Time,TemperatureF,DewpointF,PressureIn,WindDirection,WindDirectionDegrees,WindSpeedMPH,WindSpeedGustMPH,Humidity,HourlyPrecipIn,Conditions,Clouds,dailyrainin,SoftwareType,DateUTC
2013-04-25 00:02:00,62.5,20.9,29.86,North,0,0.0,0.0,20,0.00,,,0.00,WUHU216HW,2013-04-25 07:02:00,
2013-04-25 00:04:00,62.3,21.8,29.86,North,0,0.0,0.0,21,0.00,,,0.00,WUHU216HW,2013-04-25 07:04:00,
2013-04-25 00:05:00,62.3,21.8,29.86,North,0,0.0,0.0,21,0.00,,,0.00,WUHU216HW,2013-04-25 07:05:00,
2013-04-25 00:06:00,62.3,21.8,29.86,North,0,0.0,0.0,21,0.00,,,0.00,WUHU216HW,2013-04-25 07:06:00,
2013-04-25 00:08:00,62.3,21.8,29.86,North,0,0.0,0.0,21,0.00,,,0.00,WUHU216HW,2013-04-25 07:08:00,
2013-04-25 00:10:00,62.1,21.6,29.86,North,0,0.0,0.0,21,0.00,,,0.00,WUHU216HW,2013-04-25 07:10:00,
2013-04-25 00:11:00,62.1,21.6,29.86,North,0,0.0,0.0,21,0.00,,,0.00,WUHU216HW,2013-04-25 07:11:00,
2013-04-25 00:14:00,61.9,21.4,29.86,North,0,0.0,0.0,21,0.00,,,0.00,WUHU216HW,2013-04-25 07:14:00,
2013-04-25 00:15:00,61.9,21.4,29.86,North,0,0.0,0.0,21,0.00,,,0.00,WUHU216HW,2013-04-25 07:15:00,
2013-04-25 00:16:00,61.9,21.4,29.86,North,0,0.0,0.0,21,0.00,,,0.00,WUHU216HW,2013-04-25 07:16:00,
2013-04-25 00:19:00,61.7,21.3,29.86,North,0,0.0,0.0,21,0.00,,,0.00,WUHU216HW,2013-04-25 07:19:00,
2013-04-25 00:21:00,61.6,21.2,29.86,North,0,0.0,0.0,21,0.00,,,0.00,WUHU216HW,2013-04-25 07:21:00,
2013-04-25 00:22:00,61.6,21.2,29.86,North,0,0.0,0.0,21,0.00,,,0.00,WUHU216HW,2013-04-25 07:22:00,
2013-04-25 00:24:00,61.2,20.9,29.86,North,0,0.0,0.0,21,0.00,,,0.00,WUHU216HW,2013-04-25 07:24:00,
2013-04-25 00:26:00,61.0,20.7,29.86,North,0,0.0,0.0,21,0.00,,,0.00,WUHU216HW,2013-04-25 07:26:00,
2013-04-25 00:28:00,60.7,20.4,29.86,North,0,0.0,0.0,21,0.00,,,0.00,WUHU216HW,2013-04-25 07:28:00,
2013-04-25 00:29:00,60.5,20.3,29.86,North,0,0.0,0.0,21,0.00,,,0.00,WUHU216HW,2013-04-25 07:29:00,
2013-04-25 00:31:00,60.3,20.1,29.86,North,0,0.0,0.0,21,0.00,,,0.00,WUHU216HW,2013-04-25 07:31:00,
2013-04-25 00:34:00,60.1,19.9,29.86,North,0,0.0,0.0,21,0.00,,,0.00,WUHU216HW,2013-04-25 07:34:00,
2013-04-25 00:35:00,60.1,19.9,29.86,North,0,0.0,0.0,21,0.00,,,0.00,WUHU216HW,2013-04-25 07:35:00,
2013-04-25 00:37:00,59.9,19.8,29.86,North,0,0.0,0.0,21,0.00,,,0.00,WUHU216HW,2013-04-25 07:37:00,
2013-04-25 00:38:00,59.9,19.8,29.86,North,0,0.0,0.0,21,0.00,,,0.00,WUHU216HW,2013-04-25 07:38:00,
2013-04-25 00:40:00,59.9,20.7,29.86,North,0,0.0,0.0,22,0.00,,,0.00,WUHU216HW,2013-04-25 07:40:00,
2013-04-25 00:41:00,59.9,20.7,29.86,North,0,0.0,0.0,22,0.00,,,0.00,WUHU216HW,2013-04-25 07:41:00,
2013-04-25 00:42:00,59.9,20.7,29.86,North,0,0.0,0.0,22,0.00,,,0.00,WUHU216HW,2013-04-25 07:42:00,
2013-04-25 00:43:00,59.9,20.7,29.86,North,0,0.0,0.0,22,0.00,,,0.00,WUHU216HW,2013-04-25 07:43:00,
2013-04-25 00:46:00,59.8,20.6,29.86,North,0,0.0,0.0,22,0.00,,,0.00,WUHU216HW,2013-04-25 07:46:00,
2013-04-25 00:47:00,59.8,20.6,29.86,North,0,0.0,0.0,22,0.00,,,0.00,WUHU216HW,2013-04-25 07:47:00,
2013-04-25 00:49:00,59.8,20.6,29.86,North,0,0.0,0.0,22,0.00,,,0.00,WUHU216HW,2013-04-25 07:49:00,
2013-04-25 00:50:00,59.8,20.6,29.86,North,0,0.0,0.0,22,0.00,,,0.00,WUHU216HW,2013-04-25 07:50:00,
2013-04-25 00:52:00,59.6,20.4,29.86,North,0,0.0,0.0,22,0.00,,,0.00,WUHU216HW,2013-04-25 07:52:00,
2013-04-25 00:53:00,59.6,20.4,29.86,North,0,0.0,0.0,22,0.00,,,0.00,WUHU216HW,2013-04-25 07:53:00,
2013-04-25 00:54:00,59.8,20.6,29.86,North,0,0.0,0.0,22,0.00,,,0.00,WUHU216HW,2013-04-25 07:54:00,
2013-04-25 00:55:00,59.8,20.6,29.86,North,0,0.0,0.0,22,0.00,,,0.00,WUHU216HW,2013-04-25 07:55:00,
2013-04-25 00:57:00,59.6,20.4,29.86,North,0,0.0,0.0,22,0.00,,,0.00,WUHU216HW,2013-04-25 07:57:00,
2013-04-25 00:58:00,59.6,20.4,29.86,North,0,0.0,0.0,22,0.00,,,0.00,WUHU216HW,2013-04-25 07:58:00,
2013-04-25 01:00:00,59.4,20.3,29.86,North,0,0.0,0.0,22,0.00,,,0.00,WUHU216HW,2013-04-25 08:00:00,
2013-04-25 01:04:00,59.4,20.3,29.86,North,0,0.0,0.0,22,0.00,,,0.00,WUHU216HW,2013-04-25 08:04:00,
2013-04-25 01:05:00,59.4,20.3,29.86,North,0,0.0,0.0,22,0.00,,,0.00,WUHU216HW,2013-04-25 08:05:00,
2013-04-25 01:06:00,59.4,20.3,29.86,North,0,0.0,0.0,22,0.00,,,0.00,WUHU216HW,2013-04-25 08:06:00,
2013-04-25 01:10:00,59.2,20.1,29.85,North,0,0.0,0.0,22,0.00,,,0.00,WUHU216HW,2013-04-25 08:10:00,
2013-04-25 01:11:00,59.2,20.1,29.85,North,0,0.0,0.0,22,0.00,,,0.00,WUHU216HW,2013-04-25 08:11:00,
2013-04-25 01:12:00,59.2,20.1,29.85,North,0,0.0,0.0,22,0.00,,,0.00,WUHU216HW,2013-04-25 08:12:00,
2013-04-25 01:15:00,59.0,20.0,29.86,North,0,0.0,0.0,22,0.00,,,0.00,WUHU216HW,2013-04-25 08:15:00,
2013-04-25 01:16:00,59.0,20.0,29.86,North,0,0.0,0.0,22,0.00,,,0.00,WUHU216HW,2013-04-25 08:16:00,
2013-04-25 01:17:00,58.9,19.8,29.85,North,0,0.0,0.0,22,0.00,,,0.00,WUHU216HW,2013-04-25 08:17:00,
2013-04-25 01:19:00,58.7,19.6,29.86,North,0,0.0,0.0,22,0.00,,,0.00,WUHU216HW,2013-04-25 08:19:00,
2013-04-25 01:20:00,58.7,19.6,29.86,North,0,0.0,0.0,22,0.00,,,0.00,WUHU216HW,2013-04-25 08:20:00,
2013-04-25 01:21:00,58.7,19.6,29.86,North,0,0.0,0.0,22,0.00,,,0.00,WUHU216HW,2013-04-25 08:21:00,
2013-04-25 01:22:00,58.7,19.6,29.86,North,0,0.0,0.0,22,0.00,,,0.00,WUHU216HW,2013-04-25 08:22:00,
2013-04-25 01:23:00,58.7,19.6,29.86,North,0,0.0,0.0,22,0.00,,,0.00,WUHU216HW,2013-04-25 08:23:00,
2013-04-25 01:25:00,58.7,19.6,29.86,North,0,0.0,0.0,22,0.00,,,0.00,WUHU216HW,2013-04-25 08:25:00,
2013-04-25 01:26:00,58.7,19.6,29.86,North,0,0.0,0.0,22,0.00,,,0.00,WUHU216HW,2013-04-25 08:26:00,
2013-04-25 01:27:00,58.7,19.6,29.86,North,0,0.0,0.0,22,0.00,,,0.00,WUHU216HW,2013-04-25 08:27:00,
2013-04-25 01:28:00,58.7,19.6,29.85,North,0,0.0,0.0,22,0.00,,,0.00,WUHU216HW,2013-04-25 08:28:00,
2013-04-25 01:31:00,58.7,19.6,29.86,North,0,0.0,0.0,22,0.00,,,0.00,WUHU216HW,2013-04-25 08:31:00,
2013-04-25 01:32:00,58.7,19.6,29.86,North,0,0.0,0.0,22,0.00,,,0.00,WUHU216HW,2013-04-25 08:32:00,
2013-04-25 01:34:00,58.7,19.6,29.86,North,0,0.0,0.0,22,0.00,,,0.00,WUHU216HW,2013-04-25 08:34:00,
2013-04-25 01:36:00,58.7,19.6,29.86,North,0,0.0,0.0,22,0.00,,,0.00,WUHU216HW,2013-04-25 08:36:00,
2013-04-25 01:38:00,58.7,19.6,29.86,North,0,0.0,0.0,22,0.00,,,0.00,WUHU216HW,2013-04-25 08:38:00,
2013-04-25 01:39:00,58.7,19.6,29.86,North,0,0.0,0.0,22,0.00,,,0.00,WUHU216HW,2013-04-25 08:39:00,
2013-04-25 01:41:00,58.7,19.6,29.86,North,0,0.0,0.0,22,0.00,,,0.00,WUHU216HW,2013-04-25 08:41:00,
2013-04-25 01:42:00,58.7,19.6,29.86,North,0,0.0,0.0,22,0.00,,,0.00,WUHU216HW,2013-04-25 08:42:00,
2013-04-25 01:44:00,58.7,19.6,29.86,North,0,0.0,0.0,22,0.00,,,0.00,WUHU216HW,2013-04-25 08:44:00,
2013-04-25 01:45:00,58.7,19.6,29.86,North,0,0.0,0.0,22,0.00,,,0.00,WUHU216HW,2013-04-25 08:45:00,
2013-04-25 01:47:00,58.7,20.6,29.86,North,0,0.0,0.0,23,0.00,,,0.00,WUHU216HW,2013-04-25 08:47:00,
2013-04-25 01:48:00,58.7,20.6,29.86,North,0,0.0,0.0,23,0.00,,,0.00,WUHU216HW,2013-04-25 08:48:00,
2013-04-25 01:49:00,58.5,20.4,29.86,North,0,0.0,0.0,23,0.00,,,0.00,WUHU216HW,2013-04-25 08:49:00,
2013-04-25 01:51:00,58.3,20.4,29.86,North,0,0.0,0.0,23,0.00,,,0.00,WUHU216HW,2013-04-25 08:51:00,
2013-04-25 01:52:00,58.1,21.2,29.86,North,0,0.0,0.0,24,0.00,,,0.00,WUHU216HW,2013-04-25 08:52:00,
2013-04-25 01:55:00,58.0,20.0,29.85,North,0,0.0,0.0,23,0.00,,,0.00,WUHU216HW,2013-04-25 08:55:00,
2013-04-25 01:56:00,58.0,21.0,29.85,North,0,0.0,0.0,24,0.00,,,0.00,WUHU216HW,2013-04-25 08:56:00,
2013-04-25 01:58:00,58.0,21.0,29.86,North,0,0.0,0.0,24,0.00,,,0.00,WUHU216HW,2013-04-25 08:58:00,
2013-04-25 02:00:00,58.1,20.2,29.86,North,0,0.0,0.0,23,0.00,,,0.00,WUHU216HW,2013-04-25 09:00:00,
2013-04-25 02:02:00,58.3,20.4,29.86,North,0,0.0,0.0,23,0.00,,,0.00,WUHU216HW,2013-04-25 09:02:00,
2013-04-25 02:03:00,58.3,20.4,29.86,North,0,0.0,0.0,23,0.00,,,0.00,WUHU216HW,2013-04-25 09:03:00,
2013-04-25 02:04:00,58.3,20.4,29.86,North,0,0.0,0.0,23,0.00,,,0.00,WUHU216HW,2013-04-25 09:04:00,
2013-04-25 02:06:00,58.3,20.4,29.85,North,0,0.0,0.0,23,0.00,,,0.00,WUHU216HW,2013-04-25 09:06:00,
2013-04-25 02:07:00,58.3,20.4,29.85,North,0,0.0,0.0,23,0.00,,,0.00,WUHU216HW,2013-04-25 09:07:00,
2013-04-25 02:08:00,58.3,20.4,29.86,North,0,0.0,0.0,23,0.00,,,0.00,WUHU216HW,2013-04-25 09:08:00,
2013-04-25 02:10:00,58.3,20.4,29.86,North,0,0.0,0.0,23,0.00,,,0.00,WUHU216HW,2013-04-25 09:10:00,
2013-04-25 02:11:00,58.3,20.4,29.86,North,0,0.0,0.0,23,0.00,,,0.00,WUHU216HW,2013-04-25 09:11:00,
2013-04-25 02:13:00,58.3,20.4,29.86,North,0,0.0,0.0,23,0.00,,,0.00,WUHU216HW,2013-04-25 09:13:00,
2013-04-25 02:14:00,58.3,20.4,29.86,North,0,0.0,0.0,23,0.00,,,0.00,WUHU216HW,2013-04-25 09:14:00,
2013-04-25 02:16:00,58.3,20.4,29.86,North,0,0.0,0.0,23,0.00,,,0.00,WUHU216HW,2013-04-25 09:16:00,
2013-04-25 02:17:00,58.3,20.4,29.86,North,0,0.0,0.0,23,0.00,,,0.00,WUHU216HW,2013-04-25 09:17:00,
2013-04-25 02:18:00,58.3,20.4,29.86,North,0,0.0,0.0,23,0.00,,,0.00,WUHU216HW,2013-04-25 09:18:00,
2013-04-25 02:19:00,58.3,20.4,29.86,North,0,0.0,0.0,23,0.00,,,0.00,WUHU216HW,2013-04-25 09:19:00,
2013-04-25 02:21:00,58.3,20.4,29.86,North,0,0.0,0.0,23,0.00,,,0.00,WUHU216HW,2013-04-25 09:21:00,
2013-04-25 02:22:00,58.3,20.4,29.86,North,0,0.0,0.0,23,0.00,,,0.00,WUHU216HW,2013-04-25 09:22:00,
2013-04-25 02:23:00,58.3,20.4,29.86,North,0,0.0,0.0,23,0.00,,,0.00,WUHU216HW,2013-04-25 09:23:00,
2013-04-25 02:25:00,58.3,20.4,29.86,North,0,0.0,0.0,23,0.00,,,0.00,WUHU216HW,2013-04-25 09:25:00,
2013-04-25 02:28:00,58.1,20.2,29.86,North,0,0.0,0.0,23,0.00,,,0.00,WUHU216HW,2013-04-25 09:28:00,
2013-04-25 02:29:00,58.1,20.2,29.86,North,0,0.0,0.0,23,0.00,,,0.00,WUHU216HW,2013-04-25 09:29:00,
2013-04-25 02:30:00,58.1,20.2,29.86,North,0,0.0,0.0,23,0.00,,,0.00,WUHU216HW,2013-04-25 09:30:00,
2013-04-25 02:34:00,58.0,20.0,29.86,North,0,0.0,0.0,23,0.00,,,0.00,WUHU216HW,2013-04-25 09:34:00,
2013-04-25 02:35:00,58.0,20.0,29.86,North,0,0.0,0.0,23,0.00,,,0.00,WUHU216HW,2013-04-25 09:35:00,
2013-04-25 02:36:00,58.0,20.0,29.85,North,0,0.0,0.0,23,0.00,,,0.00,WUHU216HW,2013-04-25 09:36:00,
2013-04-25 02:39:00,57.8,19.9,29.86,North,0,0.0,0.0,23,0.00,,,0.00,WUHU216HW,2013-04-25 09:39:00,
2013-04-25 02:42:00,57.6,19.7,29.86,North,0,0.0,0.0,23,0.00,,,0.00,WUHU216HW,2013-04-25 09:42:00,
2013-04-25 02:44:00,57.6,19.7,29.86,North,0,0.0,0.0,23,0.00,,,0.00,WUHU216HW,2013-04-25 09:44:00,
2013-04-25 02:47:00,57.4,19.5,29.86,North,0,0.0,0.0,23,0.00,,,0.00,WUHU216HW,2013-04-25 09:47:00,
2013-04-25 02:48:00,57.2,19.5,29.86,North,0,0.0,0.0,23,0.00,,,0.00,WUHU216HW,2013-04-25 09:48:00,
2013-04-25 02:49:00,57.2,19.5,29.86,North,0,0.0,0.0,23,0.00,,,0.00,WUHU216HW,2013-04-25 09:49:00,
2013-04-25 02:53:00,57.1,20.3,29.86,North,0,0.0,0.0,24,0.00,,,0.00,WUHU216HW,2013-04-25 09:53:00,
2013-04-25 02:55:00,56.9,20.1,29.86,North,0,0.0,0.0,24,0.00,,,0.00,WUHU216HW,2013-04-25 09:55:00,
2013-04-25 02:58:00,56.5,19.8,29.86,North,0,0.0,0.0,24,0.00,,,0.00,WUHU216HW,2013-04-25 09:58:00,
2013-04-25 02:59:00,56.5,19.8,29.86,North,0,0.0,0.0,24,0.00,,,0.00,WUHU216HW,2013-04-25 09:59:00,
2013-04-25 03:00:00,56.3,19.6,29.86,North,0,0.0,0.0,24,0.00,,,0.00,WUHU216HW,2013-04-25 10:00:00,
2013-04-25 03:04:00,56.2,19.4,29.86,North,0,0.0,0.0,24,0.00,,,0.00,WUHU216HW,2013-04-25 10:04:00,
2013-04-25 03:05:00,56.2,19.4,29.86,North,0,0.0,0.0,24,0.00,,,0.00,WUHU216HW,2013-04-25 10:05:00,
2013-04-25 03:06:00,56.2,20.4,29.86,North,0,0.0,0.0,25,0.00,,,0.00,WUHU216HW,2013-04-25 10:06:00,
2013-04-25 03:10:00,56.2,19.4,29.86,North,0,0.0,0.0,24,0.00,,,0.00,WUHU216HW,2013-04-25 10:10:00,
2013-04-25 03:11:00,56.2,20.4,29.86,North,0,0.0,0.0,25,0.00,,,0.00,WUHU216HW,2013-04-25 10:11:00,
2013-04-25 03:15:00,56.0,20.3,29.86,North,0,0.0,0.0,25,0.00,,,0.00,WUHU216HW,2013-04-25 10:15:00,
2013-04-25 03:16:00,56.0,20.3,29.86,North,0,0.0,0.0,25,0.00,,,0.00,WUHU216HW,2013-04-25 10:16:00,
2013-04-25 07:18:00,61.7,27.1,29.89,North,0,0.0,0.0,27,0.00,,,0.00,WUHU216HW,2013-04-25 14:18:00,
2013-04-25 07:19:00,61.9,27.3,29.89,North,0,0.0,0.0,27,0.00,,,0.00,WUHU216HW,2013-04-25 14:19:00,
2013-04-25 07:20:00,62.1,27.4,29.89,North,0,0.0,0.0,27,0.00,,,0.00,WUHU216HW,2013-04-25 14:20:00,
2013-04-25 07:21:00,62.3,26.6,29.88,North,0,0.0,0.0,26,0.00,,,0.00,WUHU216HW,2013-04-25 14:21:00,
2013-04-25 07:23:00,62.3,25.7,29.89,North,0,0.0,0.0,25,0.00,,,0.00,WUHU216HW,2013-04-25 14:23:00,
2013-04-25 07:24:00,62.5,25.7,29.88,North,0,0.0,0.0,25,0.00,,,0.00,WUHU216HW,2013-04-25 14:24:00,
2013-04-25 07:26:00,62.6,25.9,29.88,North,0,0.0,0.0,25,0.00,,,0.00,WUHU216HW,2013-04-25 14:26:00,
2013-04-25 07:27:00,62.8,27.1,29.89,North,0,0.0,0.0,26,0.00,,,0.00,WUHU216HW,2013-04-25 14:27:00,
2013-04-25 07:28:00,62.8,27.1,29.88,North,0,0.0,0.0,26,0.00,,,0.00,WUHU216HW,2013-04-25 14:28:00,
2013-04-25 07:30:00,63.0,26.2,29.89,North,0,0.0,0.0,25,0.00,,,0.00,WUHU216HW,2013-04-25 14:30:00,
2013-04-25 07:32:00,63.0,26.2,29.89,North,0,0.0,0.0,25,0.00,,,0.00,WUHU216HW,2013-04-25 14:32:00,
2013-04-25 07:33:00,63.0,26.2,29.88,North,0,0.0,0.0,25,0.00,,,0.00,WUHU216HW,2013-04-25 14:33:00,
2013-04-25 07:34:00,63.0,26.2,29.89,North,0,0.0,0.0,25,0.00,,,0.00,WUHU216HW,2013-04-25 14:34:00,
2013-04-25 07:35:00,63.2,26.4,29.89,North,0,0.0,0.0,25,0.00,,,0.00,WUHU216HW,2013-04-25 14:35:00,
2013-04-25 07:36:00,63.2,26.4,29.88,North,0,0.0,0.0,25,0.00,,,0.00,WUHU216HW,2013-04-25 14:36:00,
2013-04-25 07:38:00,63.4,26.6,29.89,North,0,0.0,0.0,25,0.00,,,0.00,WUHU216HW,2013-04-25 14:38:00,
2013-04-25 07:39:00,63.4,26.6,29.89,North,0,0.0,0.0,25,0.00,,,0.00,WUHU216HW,2013-04-25 14:39:00,
2013-04-25 07:41:00,63.4,26.6,29.89,North,0,0.0,0.0,25,0.00,,,0.00,WUHU216HW,2013-04-25 14:41:00,
2013-04-25 07:42:00,63.5,26.7,29.89,North,0,0.0,0.0,25,0.00,,,0.00,WUHU216HW,2013-04-25 14:42:00,
2013-04-25 07:44:00,63.5,26.7,29.89,North,0,0.0,0.0,25,0.00,,,0.00,WUHU216HW,2013-04-25 14:44:00,
2013-04-25 07:45:00,63.5,26.7,29.89,North,0,0.0,0.0,25,0.00,,,0.00,WUHU216HW,2013-04-25 14:45:00,
2013-04-25 07:46:00,63.7,26.8,29.89,North,0,0.0,0.0,25,0.00,,,0.00,WUHU216HW,2013-04-25 14:46:00,
2013-04-25 07:50:00,63.9,27.0,29.89,North,0,0.0,0.0,25,0.00,,,0.00,WUHU216HW,2013-04-25 14:50:00,
2013-04-25 07:52:00,64.1,27.2,29.89,North,0,0.0,0.0,25,0.00,,,0.00,WUHU216HW,2013-04-25 14:52:00,
2013-04-25 07:53:00,64.1,27.2,29.89,North,0,0.0,0.0,25,0.00,,,0.00,WUHU216HW,2013-04-25 14:53:00,
2013-04-25 07:55:00,64.6,27.6,29.88,North,0,0.0,0.0,25,0.00,,,0.00,WUHU216HW,2013-04-25 14:55:00,
2013-04-25 07:56:00,64.6,27.6,29.88,North,0,0.0,0.0,25,0.00,,,0.00,WUHU216HW,2013-04-25 14:56:00,
2013-04-25 07:58:00,64.8,26.7,29.89,North,0,0.0,0.0,24,0.00,,,0.00,WUHU216HW,2013-04-25 14:58:00,
2013-04-25 07:59:00,65.0,26.9,29.89,North,0,0.0,0.0,24,0.00,,,0.00,WUHU216HW,2013-04-25 14:59:00,
2013-04-25 08:00:00,65.2,27.1,29.89,North,0,0.0,0.0,24,0.00,,,0.00,WUHU216HW,2013-04-25 15:00:00,
2013-04-25 08:01:00,65.2,27.1,29.89,North,0,0.0,0.0,24,0.00,,,0.00,WUHU216HW,2013-04-25 15:01:00,
2013-04-25 08:03:00,65.3,27.2,29.89,North,0,0.0,0.0,24,0.00,,,0.00,WUHU216HW,2013-04-25 15:03:00,
2013-04-25 08:04:00,65.5,27.4,29.89,North,0,0.0,0.0,24,0.00,,,0.00,WUHU216HW,2013-04-25 15:04:00,
2013-04-25 08:05:00,65.5,27.4,29.89,North,0,0.0,0.0,24,0.00,,,0.00,WUHU216HW,2013-04-25 15:05:00,
2013-04-25 08:06:00,65.7,27.6,29.89,North,0,0.0,0.0,24,0.00,,,0.00,WUHU216HW,2013-04-25 15:06:00,
2013-04-25 08:07:00,65.7,27.6,29.89,North,0,0.0,0.0,24,0.00,,,0.00,WUHU216HW,2013-04-25 15:07:00,
2013-04-25 08:09:00,65.9,27.6,29.89,North,0,0.0,0.0,24,0.00,,,0.00,WUHU216HW,2013-04-25 15:09:00,
2013-04-25 08:10:00,65.9,27.6,29.89,North,0,0.0,0.0,24,0.00,,,0.00,WUHU216HW,2013-04-25 15:10:00,
2013-04-25 08:12:00,66.1,27.8,29.89,North,0,0.0,0.0,24,0.00,,,0.00,WUHU216HW,2013-04-25 15:12:00,
2013-04-25 08:15:00,66.2,27.0,29.89,North,0,0.0,0.0,23,0.00,,,0.00,WUHU216HW,2013-04-25 15:15:00,
2013-04-25 08:18:00,66.2,27.0,29.89,North,0,0.0,0.0,23,0.00,,,0.00,WUHU216HW,2013-04-25 15:18:00,
2013-04-25 08:20:00,66.2,27.0,29.89,North,0,0.0,0.0,23,0.00,,,0.00,WUHU216HW,2013-04-25 15:20:00,
2013-04-25 08:21:00,66.2,27.0,29.89,North,0,0.0,0.0,23,0.00,,,0.00,WUHU216HW,2013-04-25 15:21:00,
2013-04-25 08:24:00,66.4,27.1,29.89,North,0,0.0,0.0,23,0.00,,,0.00,WUHU216HW,2013-04-25 15:24:00,
2013-04-25 08:25:00,66.4,27.1,29.89,North,0,0.0,0.0,23,0.00,,,0.00,WUHU216HW,2013-04-25 15:25:00,
2013-04-25 08:26:00,66.4,27.1,29.89,North,0,0.0,0.0,23,0.00,,,0.00,WUHU216HW,2013-04-25 15:26:00,
2013-04-25 08:27:00,66.6,28.3,29.88,North,0,0.0,0.0,24,0.00,,,0.00,WUHU216HW,2013-04-25 15:27:00,
2013-04-25 08:30:00,66.8,28.5,29.88,North,0,0.0,0.0,24,0.00,,,0.00,WUHU216HW,2013-04-25 15:30:00,
2013-04-25 08:31:00,66.8,28.5,29.88,North,0,0.0,0.0,24,0.00,,,0.00,WUHU216HW,2013-04-25 15:31:00,
2013-04-25 08:32:00,67.1,27.7,29.88,North,0,0.0,0.0,23,0.00,,,0.00,WUHU216HW,2013-04-25 15:32:00,
2013-04-25 08:36:00,67.3,27.9,29.88,North,0,0.0,0.0,23,0.00,,,0.00,WUHU216HW,2013-04-25 15:36:00,
2013-04-25 08:37:00,67.3,27.9,29.88,North,0,0.0,0.0,23,0.00,,,0.00,WUHU216HW,2013-04-25 15:37:00,
2013-04-25 08:38:00,67.3,27.9,29.88,North,0,0.0,0.0,23,0.00,,,0.00,WUHU216HW,2013-04-25 15:38:00,
2013-04-25 08:41:00,67.3,27.9,29.88,North,0,0.0,0.0,23,0.00,,,0.00,WUHU216HW,2013-04-25 15:41:00,
2013-04-25 08:42:00,67.3,27.9,29.88,North,0,0.0,0.0,23,0.00,,,0.00,WUHU216HW,2013-04-25 15:42:00,
2013-04-25 08:43:00,67.3,27.9,29.88,North,0,0.0,0.0,23,0.00,,,0.00,WUHU216HW,2013-04-25 15:43:00,
2013-04-25 08:44:00,67.5,28.1,29.88,North,0,0.0,0.0,23,0.00,,,0.00,WUHU216HW,2013-04-25 15:44:00,
2013-04-25 08:47:00,67.5,28.1,29.88,North,0,0.0,0.0,23,0.00,,,0.00,WUHU216HW,2013-04-25 15:47:00,
2013-04-25 08:48:00,67.7,28.3,29.88,North,0,0.0,0.0,23,0.00,,,0.00,WUHU216HW,2013-04-25 15:48:00,
2013-04-25 08:49:00,67.9,28.4,29.88,North,0,0.0,0.0,23,0.00,,,0.00,WUHU216HW,2013-04-25 15:49:00,
2013-04-25 08:50:00,67.9,28.4,29.88,North,0,0.0,0.0,23,0.00,,,0.00,WUHU216HW,2013-04-25 15:50:00,
2013-04-25 08:52:00,68.0,28.5,29.88,North,0,0.0,0.0,23,0.00,,,0.00,WUHU216HW,2013-04-25 15:52:00,
2013-04-25 08:53:00,68.2,28.7,29.88,North,0,0.0,0.0,23,0.00,,,0.00,WUHU216HW,2013-04-25 15:53:00,
2013-04-25 08:54:00,68.2,28.7,29.88,North,0,0.0,0.0,23,0.00,,,0.00,WUHU216HW,2013-04-25 15:54:00,
2013-04-25 08:56:00,68.2,27.7,29.88,North,0,0.0,0.0,22,0.00,,,0.00,WUHU216HW,2013-04-25 15:56:00,
2013-04-25 08:58:00,68.4,28.8,29.88,North,0,0.0,0.0,23,0.00,,,0.00,WUHU216HW,2013-04-25 15:58:00,
2013-04-25 09:00:00,68.6,29.0,29.88,North,0,0.0,0.0,23,0.00,,,0.00,WUHU216HW,2013-04-25 16:00:00,
2013-04-25 09:01:00,68.6,29.0,29.88,North,0,0.0,0.0,23,0.00,,,0.00,WUHU216HW,2013-04-25 16:01:00,
2013-04-25 09:03:00,68.6,29.0,29.88,North,0,0.0,0.0,23,0.00,,,0.00,WUHU216HW,2013-04-25 16:03:00,
2013-04-25 09:05:00,68.8,29.2,29.87,North,0,0.0,0.0,23,0.00,,,0.00,WUHU216HW,2013-04-25 16:05:00,
2013-04-25 09:06:00,68.8,29.2,29.87,North,0,0.0,0.0,23,0.00,,,0.00,WUHU216HW,2013-04-25 16:06:00,
2013-04-25 09:07:00,68.9,29.3,29.88,North,0,0.0,0.0,23,0.00,,,0.00,WUHU216HW,2013-04-25 16:07:00,
2013-04-25 09:09:00,69.1,29.4,29.87,North,0,0.0,0.0,23,0.00,,,0.00,WUHU216HW,2013-04-25 16:09:00,
2013-04-25 09:11:00,69.1,29.4,29.87,North,0,0.0,0.0,23,0.00,,,0.00,WUHU216HW,2013-04-25 16:11:00,
2013-04-25 09:13:00,69.3,28.5,29.87,North,0,0.0,0.0,22,0.00,,,0.00,WUHU216HW,2013-04-25 16:13:00,
2013-04-25 09:15:00,69.5,28.7,29.87,North,0,0.0,0.0,22,0.00,,,0.00,WUHU216HW,2013-04-25 16:15:00,
2013-04-25 09:17:00,69.5,28.7,29.87,North,0,0.0,0.0,22,0.00,,,0.00,WUHU216HW,2013-04-25 16:17:00,
2013-04-25 09:18:00,69.7,28.9,29.87,North,0,0.0,0.0,22,0.00,,,0.00,WUHU216HW,2013-04-25 16:18:00,
2013-04-25 09:20:00,69.8,29.0,29.87,North,0,0.0,0.0,22,0.00,,,0.00,WUHU216HW,2013-04-25 16:20:00,
2013-04-25 09:21:00,70.0,29.2,29.87,North,0,0.0,0.0,22,0.00,,,0.00,WUHU216HW,2013-04-25 16:21:00,
2013-04-25 09:22:00,70.2,29.4,29.87,North,0,0.0,0.0,22,0.00,,,0.00,WUHU216HW,2013-04-25 16:22:00,
2013-04-25 09:23:00,70.2,29.4,29.87,North,0,0.0,0.0,22,0.00,,,0.00,WUHU216HW,2013-04-25 16:23:00,
2013-04-25 09:24:00,70.2,28.3,29.87,North,0,0.0,0.0,21,0.00,,,0.00,WUHU216HW,2013-04-25 16:24:00,
2013-04-25 09:26:00,70.4,28.4,29.87,North,0,0.0,0.0,21,0.00,,,0.00,WUHU216HW,2013-04-25 16:26:00,
2013-04-25 09:27:00,70.6,28.6,29.87,North,0,0.0,0.0,21,0.00,,,0.00,WUHU216HW,2013-04-25 16:27:00,
2013-04-25 09:28:00,70.6,28.6,29.87,North,0,0.0,0.0,21,0.00,,,0.00,WUHU216HW,2013-04-25 16:28:00,
2013-04-25 09:29:00,70.7,28.7,29.87,North,0,0.0,0.0,21,0.00,,,0.00,WUHU216HW,2013-04-25 16:29:00,
2013-04-25 09:32:00,70.9,28.9,29.87,North,0,0.0,0.0,21,0.00,,,0.00,WUHU216HW,2013-04-25 16:32:00,
2013-04-25 09:33:00,70.9,28.9,29.87,North,0,0.0,0.0,21,0.00,,,0.00,WUHU216HW,2013-04-25 16:33:00,
2013-04-25 09:35:00,71.1,29.1,29.86,North,0,0.0,0.0,21,0.00,,,0.00,WUHU216HW,2013-04-25 16:35:00,
2013-04-25 09:37:00,71.1,29.1,29.86,North,0,0.0,0.0,21,0.00,,,0.00,WUHU216HW,2013-04-25 16:37:00,
2013-04-25 09:38:00,71.1,29.1,29.87,North,0,0.0,0.0,21,0.00,,,0.00,WUHU216HW,2013-04-25 16:38:00,
2013-04-25 09:40:00,71.1,29.1,29.86,North,0,0.0,0.0,21,0.00,,,0.00,WUHU216HW,2013-04-25 16:40:00,
2013-04-25 09:41:00,71.1,29.1,29.86,North,0,0.0,0.0,21,0.00,,,0.00,WUHU216HW,2013-04-25 16:41:00,
2013-04-25 09:43:00,71.3,29.2,29.87,North,0,0.0,0.0,21,0.00,,,0.00,WUHU216HW,2013-04-25 16:43:00,
2013-04-25 09:44:00,71.3,29.2,29.87,North,0,0.0,0.0,21,0.00,,,0.00,WUHU216HW,2013-04-25 16:44:00,
2013-04-25 09:45:00,71.3,29.2,29.87,North,0,0.0,0.0,21,0.00,,,0.00,WUHU216HW,2013-04-25 16:45:00,
2013-04-25 09:46:00,71.3,29.2,29.87,North,0,0.0,0.0,21,0.00,,,0.00,WUHU216HW,2013-04-25 16:46:00,
2013-04-25 09:48:00,71.5,26.6,29.87,North,0,0.0,0.0,19,0.00,,,0.00,WUHU216HW,2013-04-25 16:48:00,
2013-04-25 09:50:00,71.3,28.2,29.87,North,0,0.0,0.0,20,0.00,,,0.00,WUHU216HW,2013-04-25 16:50:00,
2013-04-25 09:51:00,71.3,28.2,29.87,North,0,0.0,0.0,20,0.00,,,0.00,WUHU216HW,2013-04-25 16:51:00,
2013-04-25 09:56:00,71.3,29.2,29.87,North,0,0.0,0.0,21,0.00,,,0.00,WUHU216HW,2013-04-25 16:56:00,
2013-04-25 09:57:00,71.5,28.3,29.87,North,0,0.0,0.0,20,0.00,,,0.00,WUHU216HW,2013-04-25 16:57:00,
2013-04-25 09:58:00,71.6,28.4,29.87,North,0,0.0,0.0,20,0.00,,,0.00,WUHU216HW,2013-04-25 16:58:00,
2013-04-25 10:01:00,71.8,28.6,29.87,North,0,0.0,0.0,20,0.00,,,0.00,WUHU216HW,2013-04-25 17:01:00,
2013-04-25 10:02:00,71.8,28.6,29.87,North,0,0.0,0.0,20,0.00,,,0.00,WUHU216HW,2013-04-25 17:02:00,
2013-04-25 10:03:00,71.8,28.6,29.87,North,0,0.0,0.0,20,0.00,,,0.00,WUHU216HW,2013-04-25 17:03:00,
2013-04-25 10:07:00,72.2,27.3,29.87,North,0,0.0,0.0,19,0.00,,,0.00,WUHU216HW,2013-04-25 17:07:00,
2013-04-25 10:08:00,72.2,28.9,29.88,North,0,0.0,0.0,20,0.00,,,0.00,WUHU216HW,2013-04-25 17:08:00,
2013-04-25 10:10:00,72.4,27.5,29.88,North,0,0.0,0.0,19,0.00,,,0.00,WUHU216HW,2013-04-25 17:10:00,
2013-04-25 10:12:00,72.5,27.6,29.87,North,0,0.0,0.0,19,0.00,,,0.00,WUHU216HW,2013-04-25 17:12:00,
2013-04-25 10:13:00,72.5,27.6,29.87,North,0,0.0,0.0,19,0.00,,,0.00,WUHU216HW,2013-04-25 17:13:00,
2013-04-25 10:14:00,72.5,27.6,29.87,North,0,0.0,0.0,19,0.00,,,0.00,WUHU216HW,2013-04-25 17:14:00,
2013-04-25 10:15:00,72.5,27.6,29.87,North,0,0.0,0.0,19,0.00,,,0.00,WUHU216HW,2013-04-25 17:15:00,
2013-04-25 10:17:00,72.4,27.5,29.88,North,0,0.0,0.0,19,0.00,,,0.00,WUHU216HW,2013-04-25 17:17:00,
2013-04-25 10:19:00,72.5,27.6,29.88,North,0,0.0,0.0,19,0.00,,,0.00,WUHU216HW,2013-04-25 17:19:00,
2013-04-25 10:20:00,72.5,27.6,29.88,North,0,0.0,0.0,19,0.00,,,0.00,WUHU216HW,2013-04-25 17:20:00,
2013-04-25 10:22:00,72.7,27.8,29.88,North,0,0.0,0.0,19,0.00,,,0.00,WUHU216HW,2013-04-25 17:22:00,
2013-04-25 10:23:00,72.7,27.8,29.88,North,0,0.0,0.0,19,0.00,,,0.00,WUHU216HW,2013-04-25 17:23:00,
2013-04-25 10:25:00,72.9,26.3,29.88,North,0,0.0,0.0,18,0.00,,,0.00,WUHU216HW,2013-04-25 17:25:00,
2013-04-25 10:26:00,73.1,28.1,29.88,North,0,0.0,0.0,19,0.00,,,0.00,WUHU216HW,2013-04-25 17:26:00,
2013-04-25 10:28:00,73.3,25.0,29.88,North,0,0.0,0.0,17,0.00,,,0.00,WUHU216HW,2013-04-25 17:28:00,
2013-04-25 10:30:00,73.1,26.5,29.88,North,0,0.0,0.0,18,0.00,,,0.00,WUHU216HW,2013-04-25 17:30:00,
2013-04-25 10:31:00,73.1,26.5,29.88,North,0,0.0,0.0,18,0.00,,,0.00,WUHU216HW,2013-04-25 17:31:00,
2013-04-25 10:32:00,73.3,26.7,29.88,North,0,0.0,0.0,18,0.00,,,0.00,WUHU216HW,2013-04-25 17:32:00,
2013-04-25 10:33:00,73.4,28.5,29.88,North,0,0.0,0.0,19,0.00,,,0.00,WUHU216HW,2013-04-25 17:33:00,
2013-04-25 10:34:00,73.4,28.5,29.88,North,0,0.0,0.0,19,0.00,,,0.00,WUHU216HW,2013-04-25 17:34:00,
2013-04-25 10:35:00,73.8,28.7,29.88,North,0,0.0,0.0,19,0.00,,,0.00,WUHU216HW,2013-04-25 17:35:00,
2013-04-25 10:36:00,74.2,29.0,29.88,North,0,0.0,0.0,19,0.00,,,0.00,WUHU216HW,2013-04-25 17:36:00,
2013-04-25 10:37:00,74.2,29.0,29.88,North,0,0.0,0.0,19,0.00,,,0.00,WUHU216HW,2013-04-25 17:37:00,
2013-04-25 10:38:00,74.3,29.2,29.88,North,0,0.0,0.0,19,0.00,,,0.00,WUHU216HW,2013-04-25 17:38:00,
2013-04-25 10:39:00,74.5,29.3,29.88,North,0,0.0,0.0,19,0.00,,,0.00,WUHU216HW,2013-04-25 17:39:00,
2013-04-25 10:41:00,74.5,29.3,29.88,North,0,0.0,0.0,19,0.00,,,0.00,WUHU216HW,2013-04-25 17:41:00,
2013-04-25 10:42:00,74.7,29.4,29.88,North,0,0.0,0.0,19,0.00,,,0.00,WUHU216HW,2013-04-25 17:42:00,
2013-04-25 10:44:00,74.7,29.4,29.88,North,0,0.0,0.0,19,0.00,,,0.00,WUHU216HW,2013-04-25 17:44:00,
2013-04-25 10:45:00,74.7,29.4,29.88,North,0,0.0,0.0,19,0.00,,,0.00,WUHU216HW,2013-04-25 17:45:00,
2013-04-25 10:46:00,74.7,29.4,29.88,North,0,0.0,0.0,19,0.00,,,0.00,WUHU216HW,2013-04-25 17:46:00,
2013-04-25 10:47:00,74.5,27.6,29.88,North,0,0.0,0.0,18,0.00,,,0.00,WUHU216HW,2013-04-25 17:47:00,
2013-04-25 10:48:00,74.5,29.3,29.88,North,0,0.0,0.0,19,0.00,,,0.00,WUHU216HW,2013-04-25 17:48:00,
2013-04-25 10:49:00,74.5,29.3,29.88,North,0,0.0,0.0,19,0.00,,,0.00,WUHU216HW,2013-04-25 17:49:00,
2013-04-25 10:51:00,74.5,29.3,29.88,North,0,0.0,0.0,19,0.00,,,0.00,WUHU216HW,2013-04-25 17:51:00,
2013-04-25 10:52:00,74.7,29.4,29.88,North,0,0.0,0.0,19,0.00,,,0.00,WUHU216HW,2013-04-25 17:52:00,
2013-04-25 10:54:00,75.1,28.1,29.88,North,0,0.0,0.0,18,0.00,,,0.00,WUHU216HW,2013-04-25 17:54:00,
2013-04-25 10:56:00,75.2,28.2,29.87,North,0,0.0,0.0,18,0.00,,,0.00,WUHU216HW,2013-04-25 17:56:00,
2013-04-25 10:57:00,75.2,28.2,29.88,North,0,0.0,0.0,18,0.00,,,0.00,WUHU216HW,2013-04-25 17:57:00,
2013-04-25 11:00:00,75.8,28.6,29.88,North,0,0.0,0.0,18,0.00,,,0.00,WUHU216HW,2013-04-25 18:00:00,
2013-04-25 11:02:00,76.0,28.8,29.88,North,0,0.0,0.0,18,0.00,,,0.00,WUHU216HW,2013-04-25 18:02:00,
2013-04-25 11:03:00,76.1,28.9,29.88,North,0,0.0,0.0,18,0.00,,,0.00,WUHU216HW,2013-04-25 18:03:00,
2013-04-25 11:05:00,76.1,28.9,29.88,North,0,0.0,0.0,18,0.00,,,0.00,WUHU216HW,2013-04-25 18:05:00,
2013-04-25 11:07:00,76.5,29.2,29.88,North,0,0.0,0.0,18,0.00,,,0.00,WUHU216HW,2013-04-25 18:07:00,
2013-04-25 11:08:00,76.5,29.2,29.88,North,0,0.0,0.0,18,0.00,,,0.00,WUHU216HW,2013-04-25 18:08:00,
2013-04-25 11:09:00,76.7,29.3,29.88,North,0,0.0,0.0,18,0.00,,,0.00,WUHU216HW,2013-04-25 18:09:00,
2013-04-25 11:13:00,76.7,26.0,29.88,North,0,0.0,0.0,16,0.00,,,0.00,WUHU216HW,2013-04-25 18:13:00,
2013-04-25 11:14:00,76.3,25.7,29.88,North,0,0.0,0.0,16,0.00,,,0.00,WUHU216HW,2013-04-25 18:14:00,
2013-04-25 11:15:00,76.3,25.7,29.88,North,0,0.0,0.0,16,0.00,,,0.00,WUHU216HW,2013-04-25 18:15:00,
2013-04-25 11:18:00,76.0,25.5,29.88,North,0,0.0,0.0,16,0.00,,,0.00,WUHU216HW,2013-04-25 18:18:00,
2013-04-25 11:19:00,76.0,25.5,29.87,North,0,0.0,0.0,16,0.00,,,0.00,WUHU216HW,2013-04-25 18:19:00,
2013-04-25 11:20:00,75.8,20.3,29.88,North,0,0.0,0.0,13,0.00,,,0.00,WUHU216HW,2013-04-25 18:20:00,
2013-04-25 11:23:00,75.4,23.4,29.88,North,0,0.0,0.0,15,0.00,,,0.00,WUHU216HW,2013-04-25 18:23:00,
2013-04-25 11:24:00,75.4,25.0,29.88,North,0,0.0,0.0,16,0.00,,,0.00,WUHU216HW,2013-04-25 18:24:00,
2013-04-25 11:25:00,75.4,25.0,29.88,North,0,0.0,0.0,16,0.00,,,0.00,WUHU216HW,2013-04-25 18:25:00,
2013-04-25 11:29:00,76.0,23.8,29.87,North,0,0.0,0.0,15,0.00,,,0.00,WUHU216HW,2013-04-25 18:29:00,
2013-04-25 11:30:00,76.1,23.9,29.87,North,0,0.0,0.0,15,0.00,,,0.00,WUHU216HW,2013-04-25 18:30:00,
2013-04-25 11:31:00,76.3,25.7,29.87,North,0,0.0,0.0,16,0.00,,,0.00,WUHU216HW,2013-04-25 18:31:00,
2013-04-25 11:33:00,76.5,25.9,29.87,North,0,0.0,0.0,16,0.00,,,0.00,WUHU216HW,2013-04-25 18:33:00,
2013-04-25 11:35:00,76.7,26.0,29.87,North,0,0.0,0.0,16,0.00,,,0.00,WUHU216HW,2013-04-25 18:35:00,
2013-04-25 11:36:00,76.9,26.2,29.87,North,0,0.0,0.0,16,0.00,,,0.00,WUHU216HW,2013-04-25 18:36:00,
2013-04-25 11:37:00,76.9,26.2,29.87,North,0,0.0,0.0,16,0.00,,,0.00,WUHU216HW,2013-04-25 18:37:00,
2013-04-25 11:38:00,77.0,26.3,29.87,North,0,0.0,0.0,16,0.00,,,0.00,WUHU216HW,2013-04-25 18:38:00,
2013-04-25 11:41:00,77.0,26.3,29.87,North,0,0.0,0.0,16,0.00,,,0.00,WUHU216HW,2013-04-25 18:41:00,
2013-04-25 11:42:00,77.0,26.3,29.87,North,0,0.0,0.0,16,0.00,,,0.00,WUHU216HW,2013-04-25 18:42:00,
2013-04-25 11:43:00,77.2,26.5,29.87,North,0,0.0,0.0,16,0.00,,,0.00,WUHU216HW,2013-04-25 18:43:00,
2013-04-25 11:47:00,77.2,26.5,29.87,North,0,0.0,0.0,16,0.00,,,0.00,WUHU216HW,2013-04-25 18:47:00,
2013-04-25 11:48:00,77.2,26.5,29.87,North,0,0.0,0.0,16,0.00,,,0.00,WUHU216HW,2013-04-25 18:48:00,
2013-04-25 11:50:00,77.4,28.3,29.87,North,0,0.0,0.0,17,0.00,,,0.00,WUHU216HW,2013-04-25 18:50:00,
2013-04-25 11:52:00,77.4,26.6,29.87,North,0,0.0,0.0,16,0.00,,,0.00,WUHU216HW,2013-04-25 18:52:00,
2013-04-25 11:53:00,77.4,26.6,29.87,North,0,0.0,0.0,16,0.00,,,0.00,WUHU216HW,2013-04-25 18:53:00,
2013-04-25 11:54:00,77.4,28.3,29.87,North,0,0.0,0.0,17,0.00,,,0.00,WUHU216HW,2013-04-25 18:54:00,
2013-04-25 11:56:00,77.2,26.5,29.86,North,0,0.0,0.0,16,0.00,,,0.00,WUHU216HW,2013-04-25 18:56:00,
2013-04-25 11:58:00,76.9,26.2,29.86,North,0,0.0,0.0,16,0.00,,,0.00,WUHU216HW,2013-04-25 18:58:00,
2013-04-25 11:59:00,76.9,26.2,29.86,North,0,0.0,0.0,16,0.00,,,0.00,WUHU216HW,2013-04-25 18:59:00,
2013-04-25 12:01:00,76.5,25.9,29.86,North,0,0.0,0.0,16,0.00,,,0.00,WUHU216HW,2013-04-25 19:01:00,
2013-04-25 12:03:00,76.3,25.7,29.86,North,0,0.0,0.0,16,0.00,,,0.00,WUHU216HW,2013-04-25 19:03:00,
2013-04-25 12:04:00,76.3,27.4,29.86,North,0,0.0,0.0,17,0.00,,,0.00,WUHU216HW,2013-04-25 19:04:00,
2013-04-25 12:06:00,76.3,25.7,29.86,North,0,0.0,0.0,16,0.00,,,0.00,WUHU216HW,2013-04-25 19:06:00,
2013-04-25 12:08:00,76.5,20.9,29.86,North,0,0.0,0.0,13,0.00,,,0.00,WUHU216HW,2013-04-25 19:08:00,
2013-04-25 12:09:00,76.5,20.9,29.86,North,0,0.0,0.0,13,0.00,,,0.00,WUHU216HW,2013-04-25 19:09:00,
2013-04-25 12:10:00,76.5,20.9,29.86,North,0,0.0,0.0,13,0.00,,,0.00,WUHU216HW,2013-04-25 19:10:00,
2013-04-25 12:14:00,76.5,17.7,29.87,North,0,0.0,0.0,11,0.00,,,0.00,WUHU216HW,2013-04-25 19:14:00,
2013-04-25 12:15:00,76.3,17.5,29.87,North,0,0.0,0.0,11,0.00,,,0.00,WUHU216HW,2013-04-25 19:15:00,
2013-04-25 12:16:00,76.0,18.8,29.87,North,0,0.0,0.0,12,0.00,,,0.00,WUHU216HW,2013-04-25 19:16:00,
2013-04-25 12:19:00,76.0,18.8,29.87,North,0,0.0,0.0,12,0.00,,,0.00,WUHU216HW,2013-04-25 19:19:00,
2013-04-25 12:20:00,75.8,20.3,29.87,North,0,0.0,0.0,13,0.00,,,0.00,WUHU216HW,2013-04-25 19:20:00,
2013-04-25 12:21:00,75.6,20.2,29.87,North,0,0.0,0.0,13,0.00,,,0.00,WUHU216HW,2013-04-25 19:21:00,
2013-04-25 12:24:00,75.6,20.2,29.86,North,0,0.0,0.0,13,0.00,,,0.00,WUHU216HW,2013-04-25 19:24:00,
2013-04-25 12:25:00,75.6,20.2,29.86,North,0,0.0,0.0,13,0.00,,,0.00,WUHU216HW,2013-04-25 19:25:00,
2013-04-25 12:27:00,75.6,20.2,29.86,North,0,0.0,0.0,13,0.00,,,0.00,WUHU216HW,2013-04-25 19:27:00,
2013-04-25 12:29:00,76.1,22.3,29.86,North,0,0.0,0.0,14,0.00,,,0.00,WUHU216HW,2013-04-25 19:29:00,
2013-04-25 12:30:00,76.3,20.8,29.86,North,0,0.0,0.0,13,0.00,,,0.00,WUHU216HW,2013-04-25 19:30:00,
2013-04-25 12:31:00,76.5,20.9,29.86,North,0,0.0,0.0,13,0.00,,,0.00,WUHU216HW,2013-04-25 19:31:00,
2013-04-25 12:32:00,76.5,20.9,29.86,North,0,0.0,0.0,13,0.00,,,0.00,WUHU216HW,2013-04-25 19:32:00,
2013-04-25 12:33:00,76.7,21.1,29.86,North,0,0.0,0.0,13,0.00,,,0.00,WUHU216HW,2013-04-25 19:33:00,
2013-04-25 12:35:00,76.9,22.9,29.86,North,0,0.0,0.0,14,0.00,,,0.00,WUHU216HW,2013-04-25 19:35:00,
2013-04-25 12:36:00,76.9,22.9,29.86,North,0,0.0,0.0,14,0.00,,,0.00,WUHU216HW,2013-04-25 19:36:00,
2013-04-25 12:39:00,76.9,21.3,29.86,North,0,0.0,0.0,13,0.00,,,0.00,WUHU216HW,2013-04-25 19:39:00,
2013-04-25 12:41:00,76.7,21.1,29.86,North,0,0.0,0.0,13,0.00,,,0.00,WUHU216HW,2013-04-25 19:41:00,
2013-04-25 12:43:00,76.5,20.9,29.86,North,0,0.0,0.0,13,0.00,,,0.00,WUHU216HW,2013-04-25 19:43:00,
2013-04-25 12:45:00,76.5,20.9,29.86,North,0,0.0,0.0,13,0.00,,,0.00,WUHU216HW,2013-04-25 19:45:00,
2013-04-25 12:46:00,76.3,20.8,29.86,North,0,0.0,0.0,13,0.00,,,0.00,WUHU216HW,2013-04-25 19:46:00,
2013-04-25 12:47:00,76.1,20.6,29.86,North,0,0.0,0.0,13,0.00,,,0.00,WUHU216HW,2013-04-25 19:47:00,
2013-04-25 12:49:00,76.0,23.8,29.86,North,0,0.0,0.0,15,0.00,,,0.00,WUHU216HW,2013-04-25 19:49:00,
2013-04-25 12:51:00,76.0,23.8,29.86,North,0,0.0,0.0,15,0.00,,,0.00,WUHU216HW,2013-04-25 19:51:00,
2013-04-25 12:52:00,76.1,23.9,29.85,North,0,0.0,0.0,15,0.00,,,0.00,WUHU216HW,2013-04-25 19:52:00,
2013-04-25 12:54:00,76.1,23.9,29.86,North,0,0.0,0.0,15,0.00,,,0.00,WUHU216HW,2013-04-25 19:54:00,
2013-04-25 12:57:00,76.3,24.1,29.85,North,0,0.0,0.0,15,0.00,,,0.00,WUHU216HW,2013-04-25 19:57:00,
2013-04-25 12:59:00,76.7,24.4,29.86,North,0,0.0,0.0,15,0.00,,,0.00,WUHU216HW,2013-04-25 19:59:00,
2013-04-25 13:00:00,76.7,24.4,29.85,North,0,0.0,0.0,15,0.00,,,0.00,WUHU216HW,2013-04-25 20:00:00,
2013-04-25 13:03:00,76.9,24.5,29.85,North,0,0.0,0.0,15,0.00,,,0.00,WUHU216HW,2013-04-25 20:03:00,
2013-04-25 13:04:00,77.0,24.7,29.85,North,0,0.0,0.0,15,0.00,,,0.00,WUHU216HW,2013-04-25 20:04:00,
2013-04-25 13:05:00,77.2,24.8,29.85,North,0,0.0,0.0,15,0.00,,,0.00,WUHU216HW,2013-04-25 20:05:00,
2013-04-25 13:06:00,77.2,24.8,29.85,North,0,0.0,0.0,15,0.00,,,0.00,WUHU216HW,2013-04-25 20:06:00,
2013-04-25 13:08:00,77.2,21.5,29.85,North,0,0.0,0.0,13,0.00,,,0.00,WUHU216HW,2013-04-25 20:08:00,
2013-04-25 13:10:00,76.9,21.3,29.85,North,0,0.0,0.0,13,0.00,,,0.00,WUHU216HW,2013-04-25 20:10:00,
2013-04-25 13:11:00,76.5,20.9,29.85,North,0,0.0,0.0,13,0.00,,,0.00,WUHU216HW,2013-04-25 20:11:00,
2013-04-25 13:13:00,76.3,24.1,29.85,North,0,0.0,0.0,15,0.00,,,0.00,WUHU216HW,2013-04-25 20:13:00,
2013-04-25 13:14:00,76.3,24.1,29.85,North,0,0.0,0.0,15,0.00,,,0.00,WUHU216HW,2013-04-25 20:14:00,
2013-04-25 13:16:00,76.5,24.2,29.86,North,0,0.0,0.0,15,0.00,,,0.00,WUHU216HW,2013-04-25 20:16:00,
2013-04-25 13:17:00,76.7,21.1,29.85,North,0,0.0,0.0,13,0.00,,,0.00,WUHU216HW,2013-04-25 20:17:00,
2013-04-25 13:19:00,76.9,21.3,29.86,North,0,0.0,0.0,13,0.00,,,0.00,WUHU216HW,2013-04-25 20:19:00,
2013-04-25 13:22:00,77.0,19.7,29.85,North,0,0.0,0.0,12,0.00,,,0.00,WUHU216HW,2013-04-25 20:22:00,
2013-04-25 13:25:00,76.9,21.3,29.85,North,0,0.0,0.0,13,0.00,,,0.00,WUHU216HW,2013-04-25 20:25:00,
2013-04-25 13:26:00,76.9,21.3,29.85,North,0,0.0,0.0,13,0.00,,,0.00,WUHU216HW,2013-04-25 20:26:00,
2013-04-25 13:27:00,76.9,21.3,29.85,North,0,0.0,0.0,13,0.00,,,0.00,WUHU216HW,2013-04-25 20:27:00,
2013-04-25 13:28:00,77.0,21.3,29.85,North,0,0.0,0.0,13,0.00,,,0.00,WUHU216HW,2013-04-25 20:28:00,
2013-04-25 13:30:00,77.2,21.5,29.85,North,0,0.0,0.0,13,0.00,,,0.00,WUHU216HW,2013-04-25 20:30:00,
2013-04-25 13:32:00,77.2,21.5,29.85,North,0,0.0,0.0,13,0.00,,,0.00,WUHU216HW,2013-04-25 20:32:00,
2013-04-25 13:34:00,77.4,21.6,29.85,North,0,0.0,0.0,13,0.00,,,0.00,WUHU216HW,2013-04-25 20:34:00,
2013-04-25 13:37:00,77.8,21.9,29.85,North,0,0.0,0.0,13,0.00,,,0.00,WUHU216HW,2013-04-25 20:37:00,
2013-04-25 13:38:00,77.8,21.9,29.85,North,0,0.0,0.0,13,0.00,,,0.00,WUHU216HW,2013-04-25 20:38:00,
2013-04-25 13:39:00,77.8,21.9,29.85,North,0,0.0,0.0,13,0.00,,,0.00,WUHU216HW,2013-04-25 20:39:00,
2013-04-25 13:40:00,77.8,21.9,29.85,North,0,0.0,0.0,13,0.00,,,0.00,WUHU216HW,2013-04-25 20:40:00,
2013-04-25 13:42:00,77.8,21.9,29.85,North,0,0.0,0.0,13,0.00,,,0.00,WUHU216HW,2013-04-25 20:42:00,
2013-04-25 13:44:00,77.4,20.0,29.85,North,0,0.0,0.0,12,0.00,,,0.00,WUHU216HW,2013-04-25 20:44:00,
2013-04-25 13:45:00,77.0,19.7,29.85,North,0,0.0,0.0,12,0.00,,,0.00,WUHU216HW,2013-04-25 20:45:00,
2013-04-25 13:46:00,76.7,19.5,29.85,North,0,0.0,0.0,12,0.00,,,0.00,WUHU216HW,2013-04-25 20:46:00,
2013-04-25 13:48:00,75.8,20.3,29.85,North,0,0.0,0.0,13,0.00,,,0.00,WUHU216HW,2013-04-25 20:48:00,
2013-04-25 13:50:00,75.6,20.2,29.85,North,0,0.0,0.0,13,0.00,,,0.00,WUHU216HW,2013-04-25 20:50:00,
2013-04-25 13:52:00,75.2,19.9,29.85,North,0,0.0,0.0,13,0.00,,,0.00,WUHU216HW,2013-04-25 20:52:00,
2013-04-25 13:54:00,75.2,21.6,29.85,North,0,0.0,0.0,14,0.00,,,0.00,WUHU216HW,2013-04-25 20:54:00,
2013-04-25 13:55:00,75.2,21.6,29.85,North,0,0.0,0.0,14,0.00,,,0.00,WUHU216HW,2013-04-25 20:55:00,
2013-04-25 13:56:00,75.6,20.2,29.86,North,0,0.0,0.0,13,0.00,,,0.00,WUHU216HW,2013-04-25 20:56:00,
2013-04-25 13:58:00,76.0,20.5,29.86,North,0,0.0,0.0,13,0.00,,,0.00,WUHU216HW,2013-04-25 20:58:00,
2013-04-25 14:00:00,76.1,22.3,29.85,North,0,0.0,0.0,14,0.00,,,0.00,WUHU216HW,2013-04-25 21:00:00,
2013-04-25 14:01:00,76.1,22.3,29.85,North,0,0.0,0.0,14,0.00,,,0.00,WUHU216HW,2013-04-25 21:01:00,
2013-04-25 14:02:00,76.1,22.3,29.85,North,0,0.0,0.0,14,0.00,,,0.00,WUHU216HW,2013-04-25 21:02:00,
2013-04-25 14:03:00,76.5,24.2,29.86,North,0,0.0,0.0,15,0.00,,,0.00,WUHU216HW,2013-04-25 21:03:00,
2013-04-25 14:04:00,76.5,24.2,29.86,North,0,0.0,0.0,15,0.00,,,0.00,WUHU216HW,2013-04-25 21:04:00,
2013-04-25 14:06:00,76.7,19.5,29.86,North,0,0.0,0.0,12,0.00,,,0.00,WUHU216HW,2013-04-25 21:06:00,
2013-04-25 14:07:00,76.3,20.8,29.86,North,0,0.0,0.0,13,0.00,,,0.00,WUHU216HW,2013-04-25 21:07:00,
2013-04-25 14:08:00,76.3,20.8,29.86,North,0,0.0,0.0,13,0.00,,,0.00,WUHU216HW,2013-04-25 21:08:00,
2013-04-25 14:09:00,76.3,20.8,29.86,North,0,0.0,0.0,13,0.00,,,0.00,WUHU216HW,2013-04-25 21:09:00,
2013-04-25 14:11:00,76.3,20.8,29.86,North,0,0.0,0.0,13,0.00,,,0.00,WUHU216HW,2013-04-25 21:11:00,
2013-04-25 14:12:00,76.3,20.8,29.86,North,0,0.0,0.0,13,0.00,,,0.00,WUHU216HW,2013-04-25 21:12:00,
2013-04-25 14:13:00,76.3,20.8,29.86,North,0,0.0,0.0,13,0.00,,,0.00,WUHU216HW,2013-04-25 21:13:00,
2013-04-25 14:15:00,76.5,22.6,29.86,North,0,0.0,0.0,14,0.00,,,0.00,WUHU216HW,2013-04-25 21:15:00,
2013-04-25 14:16:00,76.5,22.6,29.86,North,0,0.0,0.0,14,0.00,,,0.00,WUHU216HW,2013-04-25 21:16:00,
2013-04-25 14:18:00,76.7,24.4,29.86,North,0,0.0,0.0,15,0.00,,,0.00,WUHU216HW,2013-04-25 21:18:00,
2013-04-25 14:19:00,76.7,24.4,29.86,North,0,0.0,0.0,15,0.00,,,0.00,WUHU216HW,2013-04-25 21:19:00,
2013-04-25 14:20:00,76.9,24.5,29.86,North,0,0.0,0.0,15,0.00,,,0.00,WUHU216HW,2013-04-25 21:20:00,
2013-04-25 14:21:00,77.0,24.7,29.85,North,0,0.0,0.0,15,0.00,,,0.00,WUHU216HW,2013-04-25 21:21:00,
2013-04-25 14:24:00,76.9,24.5,29.85,North,0,0.0,0.0,15,0.00,,,0.00,WUHU216HW,2013-04-25 21:24:00,
2013-04-25 14:25:00,76.9,24.5,29.85,North,0,0.0,0.0,15,0.00,,,0.00,WUHU216HW,2013-04-25 21:25:00,
2013-04-25 14:29:00,76.3,24.1,29.86,North,0,0.0,0.0,15,0.00,,,0.00,WUHU216HW,2013-04-25 21:29:00,
2013-04-25 14:30:00,76.3,24.1,29.85,North,0,0.0,0.0,15,0.00,,,0.00,WUHU216HW,2013-04-25 21:30:00,
2013-04-25 14:31:00,76.5,24.2,29.85,North,0,0.0,0.0,15,0.00,,,0.00,WUHU216HW,2013-04-25 21:31:00,
2013-04-25 14:32:00,76.5,24.2,29.85,North,0,0.0,0.0,15,0.00,,,0.00,WUHU216HW,2013-04-25 21:32:00,
2013-04-25 14:36:00,76.5,24.2,29.85,North,0,0.0,0.0,15,0.00,,,0.00,WUHU216HW,2013-04-25 21:36:00,
2013-04-25 14:37:00,76.3,24.1,29.86,North,0,0.0,0.0,15,0.00,,,0.00,WUHU216HW,2013-04-25 21:37:00,
2013-04-25 14:38:00,76.5,24.2,29.86,North,0,0.0,0.0,15,0.00,,,0.00,WUHU216HW,2013-04-25 21:38:00,
2013-04-25 14:41:00,76.5,24.2,29.85,North,0,0.0,0.0,15,0.00,,,0.00,WUHU216HW,2013-04-25 21:41:00,
2013-04-25 14:43:00,76.7,21.1,29.85,North,0,0.0,0.0,13,0.00,,,0.00,WUHU216HW,2013-04-25 21:43:00,
2013-04-25 14:44:00,76.7,21.1,29.85,North,0,0.0,0.0,13,0.00,,,0.00,WUHU216HW,2013-04-25 21:44:00,
2013-04-25 14:46:00,76.5,20.9,29.85,North,0,0.0,0.0,13,0.00,,,0.00,WUHU216HW,2013-04-25 21:46:00,
2013-04-25 14:49:00,76.1,20.6,29.85,North,0,0.0,0.0,13,0.00,,,0.00,WUHU216HW,2013-04-25 21:49:00,
2013-04-25 14:52:00,75.6,20.2,29.84,North,0,0.0,0.0,13,0.00,,,0.00,WUHU216HW,2013-04-25 21:52:00,
2013-04-25 14:54:00,75.6,23.5,29.85,North,0,0.0,0.0,15,0.00,,,0.00,WUHU216HW,2013-04-25 21:54:00,
2013-04-25 14:55:00,75.8,23.7,29.85,North,0,0.0,0.0,15,0.00,,,0.00,WUHU216HW,2013-04-25 21:55:00,
2013-04-25 14:57:00,76.0,23.8,29.84,North,0,0.0,0.0,15,0.00,,,0.00,WUHU216HW,2013-04-25 21:57:00,
2013-04-25 15:00:00,76.3,24.1,29.85,North,0,0.0,0.0,15,0.00,,,0.00,WUHU216HW,2013-04-25 22:00:00,
2013-04-25 15:01:00,76.3,24.1,29.85,North,0,0.0,0.0,15,0.00,,,0.00,WUHU216HW,2013-04-25 22:01:00,
2013-04-25 15:02:00,76.3,24.1,29.85,North,0,0.0,0.0,15,0.00,,,0.00,WUHU216HW,2013-04-25 22:02:00,
2013-04-25 15:03:00,76.3,24.1,29.85,North,0,0.0,0.0,15,0.00,,,0.00,WUHU216HW,2013-04-25 22:03:00,
2013-04-25 15:07:00,76.3,24.1,29.85,North,0,0.0,0.0,15,0.00,,,0.00,WUHU216HW,2013-04-25 22:07:00,
2013-04-25 15:08:00,76.3,25.7,29.85,North,0,0.0,0.0,16,0.00,,,0.00,WUHU216HW,2013-04-25 22:08:00,
2013-04-25 15:09:00,76.3,25.7,29.85,North,0,0.0,0.0,16,0.00,,,0.00,WUHU216HW,2013-04-25 22:09:00,
2013-04-25 15:12:00,76.7,26.0,29.85,North,0,0.0,0.0,16,0.00,,,0.00,WUHU216HW,2013-04-25 22:12:00,
2013-04-25 15:13:00,76.7,26.0,29.85,North,0,0.0,0.0,16,0.00,,,0.00,WUHU216HW,2013-04-25 22:13:00,
2013-04-25 15:14:00,76.7,26.0,29.84,North,0,0.0,0.0,16,0.00,,,0.00,WUHU216HW,2013-04-25 22:14:00,
2013-04-25 15:15:00,76.7,26.0,29.84,North,0,0.0,0.0,16,0.00,,,0.00,WUHU216HW,2013-04-25 22:15:00,
2013-04-25 15:17:00,76.7,26.0,29.84,North,0,0.0,0.0,16,0.00,,,0.00,WUHU216HW,2013-04-25 22:17:00,
2013-04-25 15:18:00,76.9,26.2,29.84,North,0,0.0,0.0,16,0.00,,,0.00,WUHU216HW,2013-04-25 22:18:00,
2013-04-25 15:19:00,76.9,26.2,29.84,North,0,0.0,0.0,16,0.00,,,0.00,WUHU216HW,2013-04-25 22:19:00,
2013-04-25 15:20:00,76.9,26.2,29.84,North,0,0.0,0.0,16,0.00,,,0.00,WUHU216HW,2013-04-25 22:20:00,
2013-04-25 15:23:00,76.9,26.2,29.84,North,0,0.0,0.0,16,0.00,,,0.00,WUHU216HW,2013-04-25 22:23:00,
2013-04-25 15:24:00,76.7,26.0,29.84,North,0,0.0,0.0,16,0.00,,,0.00,WUHU216HW,2013-04-25 22:24:00,
2013-04-25 15:25:00,76.7,26.0,29.84,North,0,0.0,0.0,16,0.00,,,0.00,WUHU216HW,2013-04-25 22:25:00,
2013-04-25 15:27:00,77.0,26.3,29.84,North,0,0.0,0.0,16,0.00,,,0.00,WUHU216HW,2013-04-25 22:27:00,
2013-04-25 15:29:00,76.9,26.2,29.84,North,0,0.0,0.0,16,0.00,,,0.00,WUHU216HW,2013-04-25 22:29:00,
2013-04-25 15:30:00,76.7,26.0,29.84,North,0,0.0,0.0,16,0.00,,,0.00,WUHU216HW,2013-04-25 22:30:00,
2013-04-25 15:31:00,76.7,26.0,29.84,North,0,0.0,0.0,16,0.00,,,0.00,WUHU216HW,2013-04-25 22:31:00,
2013-04-25 15:34:00,76.7,27.7,29.85,North,0,0.0,0.0,17,0.00,,,0.00,WUHU216HW,2013-04-25 22:34:00,
2013-04-25 15:35:00,76.7,27.7,29.84,North,0,0.0,0.0,17,0.00,,,0.00,WUHU216HW,2013-04-25 22:35:00,
2013-04-25 15:36:00,76.7,27.7,29.84,North,0,0.0,0.0,17,0.00,,,0.00,WUHU216HW,2013-04-25 22:36:00,
2013-04-25 15:39:00,76.7,26.0,29.84,North,0,0.0,0.0,16,0.00,,,0.00,WUHU216HW,2013-04-25 22:39:00,
2013-04-25 15:40:00,76.7,26.0,29.84,North,0,0.0,0.0,16,0.00,,,0.00,WUHU216HW,2013-04-25 22:40:00,
2013-04-25 15:41:00,76.5,25.9,29.84,North,0,0.0,0.0,16,0.00,,,0.00,WUHU216HW,2013-04-25 22:41:00,
2013-04-25 15:42:00,76.5,25.9,29.84,North,0,0.0,0.0,16,0.00,,,0.00,WUHU216HW,2013-04-25 22:42:00,
2013-04-25 15:44:00,76.5,25.9,29.84,North,0,0.0,0.0,16,0.00,,,0.00,WUHU216HW,2013-04-25 22:44:00,
2013-04-25 15:46:00,76.5,27.5,29.84,North,0,0.0,0.0,17,0.00,,,0.00,WUHU216HW,2013-04-25 22:46:00,
2013-04-25 15:47:00,76.7,27.7,29.84,North,0,0.0,0.0,17,0.00,,,0.00,WUHU216HW,2013-04-25 22:47:00,
2013-04-25 15:49:00,76.7,27.7,29.84,North,0,0.0,0.0,17,0.00,,,0.00,WUHU216HW,2013-04-25 22:49:00,
2013-04-25 15:50:00,76.7,27.7,29.84,North,0,0.0,0.0,17,0.00,,,0.00,WUHU216HW,2013-04-25 22:50:00,
2013-04-25 15:52:00,76.7,27.7,29.84,North,0,0.0,0.0,17,0.00,,,0.00,WUHU216HW,2013-04-25 22:52:00,
2013-04-25 15:54:00,76.3,27.4,29.84,North,0,0.0,0.0,17,0.00,,,0.00,WUHU216HW,2013-04-25 22:54:00,
2013-04-25 15:56:00,76.1,27.3,29.84,North,0,0.0,0.0,17,0.00,,,0.00,WUHU216HW,2013-04-25 22:56:00,
2013-04-25 15:57:00,76.1,27.3,29.84,North,0,0.0,0.0,17,0.00,,,0.00,WUHU216HW,2013-04-25 22:57:00,
2013-04-25 15:58:00,76.1,27.3,29.84,North,0,0.0,0.0,17,0.00,,,0.00,WUHU216HW,2013-04-25 22:58:00,
2013-04-25 16:00:00,76.0,27.1,29.84,North,0,0.0,0.0,17,0.00,,,0.00,WUHU216HW,2013-04-25 23:00:00,
2013-04-25 16:02:00,75.4,26.6,29.84,North,0,0.0,0.0,17,0.00,,,0.00,WUHU216HW,2013-04-25 23:02:00,
2013-04-25 16:03:00,75.4,26.6,29.84,North,0,0.0,0.0,17,0.00,,,0.00,WUHU216HW,2013-04-25 23:03:00,
2013-04-25 16:04:00,75.2,28.2,29.84,North,0,0.0,0.0,18,0.00,,,0.00,WUHU216HW,2013-04-25 23:04:00,
2013-04-25 16:05:00,75.2,28.2,29.85,North,0,0.0,0.0,18,0.00,,,0.00,WUHU216HW,2013-04-25 23:05:00,
2013-04-25 16:08:00,75.1,28.1,29.85,North,0,0.0,0.0,18,0.00,,,0.00,WUHU216HW,2013-04-25 23:08:00,
2013-04-25 16:09:00,75.1,28.1,29.85,North,0,0.0,0.0,18,0.00,,,0.00,WUHU216HW,2013-04-25 23:09:00,
2013-04-25 16:11:00,74.9,27.9,29.85,North,0,0.0,0.0,18,0.00,,,0.00,WUHU216HW,2013-04-25 23:11:00,
2013-04-25 16:12:00,74.9,27.9,29.85,North,0,0.0,0.0,18,0.00,,,0.00,WUHU216HW,2013-04-25 23:12:00,
2013-04-25 16:13:00,74.7,29.4,29.85,North,0,0.0,0.0,19,0.00,,,0.00,WUHU216HW,2013-04-25 23:13:00,
2013-04-25 16:14:00,74.7,29.4,29.85,North,0,0.0,0.0,19,0.00,,,0.00,WUHU216HW,2013-04-25 23:14:00,
2013-04-25 16:17:00,74.5,31.0,29.85,North,0,0.0,0.0,20,0.00,,,0.00,WUHU216HW,2013-04-25 23:17:00,
2013-04-25 16:18:00,74.5,31.0,29.85,North,0,0.0,0.0,20,0.00,,,0.00,WUHU216HW,2013-04-25 23:18:00,
2013-04-25 16:19:00,74.5,31.0,29.85,North,0,0.0,0.0,20,0.00,,,0.00,WUHU216HW,2013-04-25 23:19:00,
2013-04-25 16:20:00,74.3,31.8,29.85,North,0,0.0,0.0,21,0.00,,,0.00,WUHU216HW,2013-04-25 23:20:00,
2013-04-25 16:23:00,74.0,31.5,29.85,North,0,0.0,0.0,21,0.00,,,0.00,WUHU216HW,2013-04-25 23:23:00,
2013-04-25 16:25:00,73.8,32.4,29.85,North,0,0.0,0.0,22,0.00,,,0.00,WUHU216HW,2013-04-25 23:25:00,
2013-04-25 16:27:00,74.0,32.5,29.85,North,0,0.0,0.0,22,0.00,,,0.00,WUHU216HW,2013-04-25 23:27:00,
2013-04-25 16:28:00,74.2,32.7,29.85,North,0,0.0,0.0,22,0.00,,,0.00,WUHU216HW,2013-04-25 23:28:00,
2013-04-25 16:30:00,74.2,32.7,29.85,North,0,0.0,0.0,22,0.00,,,0.00,WUHU216HW,2013-04-25 23:30:00,
2013-04-25 16:31:00,74.2,32.7,29.85,North,0,0.0,0.0,22,0.00,,,0.00,WUHU216HW,2013-04-25 23:31:00,
2013-04-25 16:32:00,74.3,32.9,29.85,North,0,0.0,0.0,22,0.00,,,0.00,WUHU216HW,2013-04-25 23:32:00,
2013-04-25 16:33:00,74.3,32.9,29.85,North,0,0.0,0.0,22,0.00,,,0.00,WUHU216HW,2013-04-25 23:33:00,
2013-04-25 16:36:00,74.3,32.9,29.85,North,0,0.0,0.0,22,0.00,,,0.00,WUHU216HW,2013-04-25 23:36:00,
2013-04-25 16:37:00,74.3,32.9,29.85,North,0,0.0,0.0,22,0.00,,,0.00,WUHU216HW,2013-04-25 23:37:00,
2013-04-25 16:38:00,74.3,32.9,29.85,North,0,0.0,0.0,22,0.00,,,0.00,WUHU216HW,2013-04-25 23:38:00,
2013-04-25 16:39:00,74.3,32.9,29.85,North,0,0.0,0.0,22,0.00,,,0.00,WUHU216HW,2013-04-25 23:39:00,
2013-04-25 16:42:00,74.5,32.9,29.85,North,0,0.0,0.0,22,0.00,,,0.00,WUHU216HW,2013-04-25 23:42:00,
2013-04-25 16:44:00,74.5,32.9,29.85,North,0,0.0,0.0,22,0.00,,,0.00,WUHU216HW,2013-04-25 23:44:00,
2013-04-25 16:45:00,74.5,32.9,29.85,North,0,0.0,0.0,22,0.00,,,0.00,WUHU216HW,2013-04-25 23:45:00,
2013-04-25 16:47:00,74.7,33.1,29.85,North,0,0.0,0.0,22,0.00,,,0.00,WUHU216HW,2013-04-25 23:47:00,
2013-04-25 16:50:00,74.7,33.1,29.85,North,0,0.0,0.0,22,0.00,,,0.00,WUHU216HW,2013-04-25 23:50:00,
2013-04-25 16:51:00,74.7,33.1,29.85,North,0,0.0,0.0,22,0.00,,,0.00,WUHU216HW,2013-04-25 23:51:00,
2013-04-25 16:53:00,74.7,33.1,29.85,North,0,0.0,0.0,22,0.00,,,0.00,WUHU216HW,2013-04-25 23:53:00,
2013-04-25 16:55:00,74.9,32.2,29.85,North,0,0.0,0.0,21,0.00,,,0.00,WUHU216HW,2013-04-25 23:55:00,
2013-04-25 16:56:00,74.9,32.2,29.85,North,0,0.0,0.0,21,0.00,,,0.00,WUHU216HW,2013-04-25 23:56:00,
2013-04-25 16:58:00,75.1,32.4,29.85,North,0,0.0,0.0,21,0.00,,,0.00,WUHU216HW,2013-04-25 23:58:00,
2013-04-25 16:59:00,75.1,32.4,29.85,North,0,0.0,0.0,21,0.00,,,0.00,WUHU216HW,2013-04-25 23:59:00,
2013-04-25 17:02:00,75.1,32.4,29.85,North,0,0.0,0.0,21,0.00,,,0.00,WUHU216HW,2013-04-26 00:02:00,
2013-04-25 17:03:00,75.1,32.4,29.85,North,0,0.0,0.0,21,0.00,,,0.00,WUHU216HW,2013-04-26 00:03:00,
2013-04-25 17:05:00,74.9,32.2,29.85,North,0,0.0,0.0,21,0.00,,,0.00,WUHU216HW,2013-04-26 00:05:00,
2013-04-25 17:07:00,75.1,32.4,29.85,North,0,0.0,0.0,21,0.00,,,0.00,WUHU216HW,2013-04-26 00:07:00,
2013-04-25 17:09:00,75.1,32.4,29.85,North,0,0.0,0.0,21,0.00,,,0.00,WUHU216HW,2013-04-26 00:09:00,
2013-04-25 17:10:00,75.1,32.4,29.85,North,0,0.0,0.0,21,0.00,,,0.00,WUHU216HW,2013-04-26 00:10:00,
2013-04-25 17:11:00,75.1,32.4,29.85,North,0,0.0,0.0,21,0.00,,,0.00,WUHU216HW,2013-04-26 00:11:00,
2013-04-25 17:13:00,75.1,32.4,29.85,North,0,0.0,0.0,21,0.00,,,0.00,WUHU216HW,2013-04-26 00:13:00,
2013-04-25 17:14:00,75.1,32.4,29.85,North,0,0.0,0.0,21,0.00,,,0.00,WUHU216HW,2013-04-26 00:14:00,
2013-04-25 17:15:00,75.1,32.4,29.85,North,0,0.0,0.0,21,0.00,,,0.00,WUHU216HW,2013-04-26 00:15:00,
2013-04-25 17:16:00,75.1,32.4,29.85,North,0,0.0,0.0,21,0.00,,,0.00,WUHU216HW,2013-04-26 00:16:00,
2013-04-25 17:17:00,75.1,32.4,29.85,North,0,0.0,0.0,21,0.00,,,0.00,WUHU216HW,2013-04-26 00:17:00,
2013-04-25 17:18:00,75.2,32.5,29.85,North,0,0.0,0.0,21,0.00,,,0.00,WUHU216HW,2013-04-26 00:18:00,
2013-04-25 17:19:00,75.1,33.4,29.85,North,0,0.0,0.0,22,0.00,,,0.00,WUHU216HW,2013-04-26 00:19:00,
2013-04-25 17:21:00,75.1,32.4,29.85,North,0,0.0,0.0,21,0.00,,,0.00,WUHU216HW,2013-04-26 00:21:00,
2013-04-25 17:22:00,75.1,32.4,29.85,North,0,0.0,0.0,21,0.00,,,0.00,WUHU216HW,2013-04-26 00:22:00,
2013-04-25 17:24:00,74.9,32.2,29.86,North,0,0.0,0.0,21,0.00,,,0.00,WUHU216HW,2013-04-26 00:24:00,
2013-04-25 17:27:00,74.9,33.3,29.86,North,0,0.0,0.0,22,0.00,,,0.00,WUHU216HW,2013-04-26 00:27:00,
2013-04-25 17:29:00,74.9,33.3,29.86,North,0,0.0,0.0,22,0.00,,,0.00,WUHU216HW,2013-04-26 00:29:00,
2013-04-25 17:32:00,74.9,33.3,29.86,North,0,0.0,0.0,22,0.00,,,0.00,WUHU216HW,2013-04-26 00:32:00,
2013-04-25 17:33:00,74.9,33.3,29.86,North,0,0.0,0.0,22,0.00,,,0.00,WUHU216HW,2013-04-26 00:33:00,
2013-04-25 17:34:00,74.9,33.3,29.86,North,0,0.0,0.0,22,0.00,,,0.00,WUHU216HW,2013-04-26 00:34:00,
2013-04-25 17:35:00,74.9,33.3,29.86,North,0,0.0,0.0,22,0.00,,,0.00,WUHU216HW,2013-04-26 00:35:00,
2013-04-25 17:36:00,74.7,33.1,29.86,North,0,0.0,0.0,22,0.00,,,0.00,WUHU216HW,2013-04-26 00:36:00,
2013-04-25 17:38:00,74.7,33.1,29.86,North,0,0.0,0.0,22,0.00,,,0.00,WUHU216HW,2013-04-26 00:38:00,
2013-04-25 17:39:00,74.7,33.1,29.86,North,0,0.0,0.0,22,0.00,,,0.00,WUHU216HW,2013-04-26 00:39:00,
2013-04-25 17:41:00,74.7,33.1,29.86,North,0,0.0,0.0,22,0.00,,,0.00,WUHU216HW,2013-04-26 00:41:00,
2013-04-25 17:42:00,74.7,33.1,29.86,North,0,0.0,0.0,22,0.00,,,0.00,WUHU216HW,2013-04-26 00:42:00,
2013-04-25 17:44:00,74.7,33.1,29.86,North,0,0.0,0.0,22,0.00,,,0.00,WUHU216HW,2013-04-26 00:44:00,
2013-04-25 17:46:00,74.7,33.1,29.86,North,0,0.0,0.0,22,0.00,,,0.00,WUHU216HW,2013-04-26 00:46:00,
2013-04-25 17:48:00,74.5,32.9,29.86,North,0,0.0,0.0,22,0.00,,,0.00,WUHU216HW,2013-04-26 00:48:00,
2013-04-25 17:49:00,74.5,32.9,29.86,North,0,0.0,0.0,22,0.00,,,0.00,WUHU216HW,2013-04-26 00:49:00,
2013-04-25 17:51:00,74.5,32.9,29.86,North,0,0.0,0.0,22,0.00,,,0.00,WUHU216HW,2013-04-26 00:51:00,
2013-04-25 17:53:00,74.5,32.9,29.86,North,0,0.0,0.0,22,0.00,,,0.00,WUHU216HW,2013-04-26 00:53:00,
2013-04-25 17:54:00,74.3,32.9,29.86,North,0,0.0,0.0,22,0.00,,,0.00,WUHU216HW,2013-04-26 00:54:00,
2013-04-25 17:55:00,74.3,32.9,29.86,North,0,0.0,0.0,22,0.00,,,0.00,WUHU216HW,2013-04-26 00:55:00,
2013-04-25 17:56:00,74.3,32.9,29.86,North,0,0.0,0.0,22,0.00,,,0.00,WUHU216HW,2013-04-26 00:56:00,
2013-04-25 17:58:00,74.3,32.9,29.86,North,0,0.0,0.0,22,0.00,,,0.00,WUHU216HW,2013-04-26 00:58:00,
2013-04-25 18:00:00,74.2,32.7,29.86,North,0,0.0,0.0,22,0.00,,,0.00,WUHU216HW,2013-04-26 01:00:00,
2013-04-25 18:01:00,74.2,32.7,29.86,North,0,0.0,0.0,22,0.00,,,0.00,WUHU216HW,2013-04-26 01:01:00,
2013-04-25 18:02:00,74.2,32.7,29.86,North,0,0.0,0.0,22,0.00,,,0.00,WUHU216HW,2013-04-26 01:02:00,
2013-04-25 18:04:00,74.2,32.7,29.86,North,0,0.0,0.0,22,0.00,,,0.00,WUHU216HW,2013-04-26 01:04:00,
2013-04-25 18:06:00,73.8,32.4,29.86,North,0,0.0,0.0,22,0.00,,,0.00,WUHU216HW,2013-04-26 01:06:00,
2013-04-25 18:07:00,73.8,32.4,29.86,North,0,0.0,0.0,22,0.00,,,0.00,WUHU216HW,2013-04-26 01:07:00,
2013-04-25 18:08:00,73.8,32.4,29.86,North,0,0.0,0.0,22,0.00,,,0.00,WUHU216HW,2013-04-26 01:08:00,
2013-04-25 18:11:00,73.4,32.0,29.87,North,0,0.0,0.0,22,0.00,,,0.00,WUHU216HW,2013-04-26 01:11:00,
2013-04-25 18:12:00,73.4,32.0,29.87,North,0,0.0,0.0,22,0.00,,,0.00,WUHU216HW,2013-04-26 01:12:00,
2013-04-25 18:13:00,73.3,32.0,29.87,North,0,0.0,0.0,22,0.00,,,0.00,WUHU216HW,2013-04-26 01:13:00,
2013-04-25 18:17:00,73.1,31.8,29.87,North,0,0.0,0.0,22,0.00,,,0.00,WUHU216HW,2013-04-26 01:17:00,
2013-04-25 18:18:00,73.1,31.8,29.87,North,0,0.0,0.0,22,0.00,,,0.00,WUHU216HW,2013-04-26 01:18:00,
2013-04-25 18:19:00,73.1,31.8,29.87,North,0,0.0,0.0,22,0.00,,,0.00,WUHU216HW,2013-04-26 01:19:00,
2013-04-25 18:20:00,72.9,32.6,29.87,North,0,0.0,0.0,23,0.00,,,0.00,WUHU216HW,2013-04-26 01:20:00,
2013-04-25 18:23:00,72.7,32.5,29.87,North,0,0.0,0.0,23,0.00,,,0.00,WUHU216HW,2013-04-26 01:23:00,
2013-04-25 18:24:00,72.7,32.5,29.87,North,0,0.0,0.0,23,0.00,,,0.00,WUHU216HW,2013-04-26 01:24:00,
2013-04-25 18:25:00,72.7,32.5,29.87,North,0,0.0,0.0,23,0.00,,,0.00,WUHU216HW,2013-04-26 01:25:00,
2013-04-25 18:29:00,72.7,32.5,29.87,North,0,0.0,0.0,23,0.00,,,0.00,WUHU216HW,2013-04-26 01:29:00,
2013-04-25 18:30:00,72.5,32.3,29.87,North,0,0.0,0.0,23,0.00,,,0.00,WUHU216HW,2013-04-26 01:30:00,
2013-04-25 18:31:00,72.5,32.3,29.87,North,0,0.0,0.0,23,0.00,,,0.00,WUHU216HW,2013-04-26 01:31:00,
2013-04-25 18:34:00,72.4,32.1,29.87,North,0,0.0,0.0,23,0.00,,,0.00,WUHU216HW,2013-04-26 01:34:00,
2013-04-25 18:36:00,72.0,31.9,29.87,North,0,0.0,0.0,23,0.00,,,0.00,WUHU216HW,2013-04-26 01:36:00,
2013-04-25 18:39:00,71.8,31.7,29.88,North,0,0.0,0.0,23,0.00,,,0.00,WUHU216HW,2013-04-26 01:39:00,
2013-04-25 18:40:00,71.8,31.7,29.88,North,0,0.0,0.0,23,0.00,,,0.00,WUHU216HW,2013-04-26 01:40:00,
2013-04-25 18:41:00,71.8,31.7,29.88,North,0,0.0,0.0,23,0.00,,,0.00,WUHU216HW,2013-04-26 01:41:00,
2013-04-25 18:43:00,71.8,31.7,29.88,North,0,0.0,0.0,23,0.00,,,0.00,WUHU216HW,2013-04-26 01:43:00,
2013-04-25 18:44:00,71.6,31.5,29.88,North,0,0.0,0.0,23,0.00,,,0.00,WUHU216HW,2013-04-26 01:44:00,
2013-04-25 18:45:00,71.6,31.5,29.88,North,0,0.0,0.0,23,0.00,,,0.00,WUHU216HW,2013-04-26 01:45:00,
2013-04-25 18:46:00,71.3,31.2,29.88,North,0,0.0,0.0,23,0.00,,,0.00,WUHU216HW,2013-04-26 01:46:00,
2013-04-25 18:47:00,71.3,31.2,29.88,North,0,0.0,0.0,23,0.00,,,0.00,WUHU216HW,2013-04-26 01:47:00,
2013-04-25 18:48:00,71.3,31.2,29.87,North,0,0.0,0.0,23,0.00,,,0.00,WUHU216HW,2013-04-26 01:48:00,
2013-04-25 18:51:00,71.1,31.1,29.88,North,0,0.0,0.0,23,0.00,,,0.00,WUHU216HW,2013-04-26 01:51:00,
2013-04-25 18:52:00,71.1,31.1,29.88,North,0,0.0,0.0,23,0.00,,,0.00,WUHU216HW,2013-04-26 01:52:00,
2013-04-25 18:53:00,70.9,31.0,29.88,North,0,0.0,0.0,23,0.00,,,0.00,WUHU216HW,2013-04-26 01:53:00,
2013-04-25 18:54:00,70.9,31.0,29.88,North,0,0.0,0.0,23,0.00,,,0.00,WUHU216HW,2013-04-26 01:54:00,
2013-04-25 18:57:00,70.7,30.8,29.88,North,0,0.0,0.0,23,0.00,,,0.00,WUHU216HW,2013-04-26 01:57:00,
2013-04-25 18:58:00,70.7,30.8,29.88,North,0,0.0,0.0,23,0.00,,,0.00,WUHU216HW,2013-04-26 01:58:00,
2013-04-25 18:59:00,70.7,30.8,29.88,North,0,0.0,0.0,23,0.00,,,0.00,WUHU216HW,2013-04-26 01:59:00,
2013-04-25 19:03:00,70.6,30.6,29.88,North,0,0.0,0.0,23,0.00,,,0.00,WUHU216HW,2013-04-26 02:03:00,
2013-04-25 19:04:00,70.6,30.6,29.88,North,0,0.0,0.0,23,0.00,,,0.00,WUHU216HW,2013-04-26 02:04:00,
2013-04-25 19:07:00,70.4,30.5,29.88,North,0,0.0,0.0,23,0.00,,,0.00,WUHU216HW,2013-04-26 02:07:00,
2013-04-25 19:08:00,70.4,31.5,29.88,North,0,0.0,0.0,24,0.00,,,0.00,WUHU216HW,2013-04-26 02:08:00,
2013-04-25 19:09:00,70.4,31.5,29.88,North,0,0.0,0.0,24,0.00,,,0.00,WUHU216HW,2013-04-26 02:09:00,
2013-04-25 19:10:00,70.2,30.3,29.88,North,0,0.0,0.0,23,0.00,,,0.00,WUHU216HW,2013-04-26 02:10:00,
2013-04-25 19:12:00,69.8,30.1,29.88,North,0,0.0,0.0,23,0.00,,,0.00,WUHU216HW,2013-04-26 02:12:00,
2013-04-25 19:13:00,69.8,31.1,29.88,North,0,0.0,0.0,24,0.00,,,0.00,WUHU216HW,2013-04-26 02:13:00,
2013-04-25 19:14:00,69.8,31.1,29.88,North,0,0.0,0.0,24,0.00,,,0.00,WUHU216HW,2013-04-26 02:14:00,
2013-04-25 19:15:00,69.7,30.9,29.88,North,0,0.0,0.0,24,0.00,,,0.00,WUHU216HW,2013-04-26 02:15:00,
2013-04-25 19:18:00,69.3,30.6,29.88,North,0,0.0,0.0,24,0.00,,,0.00,WUHU216HW,2013-04-26 02:18:00,
2013-04-25 19:19:00,69.3,30.6,29.88,North,0,0.0,0.0,24,0.00,,,0.00,WUHU216HW,2013-04-26 02:19:00,
2013-04-25 19:23:00,69.1,30.4,29.88,North,0,0.0,0.0,24,0.00,,,0.00,WUHU216HW,2013-04-26 02:23:00,
2013-04-25 19:24:00,69.1,30.4,29.88,North,0,0.0,0.0,24,0.00,,,0.00,WUHU216HW,2013-04-26 02:24:00,
2013-04-25 19:25:00,69.1,30.4,29.88,North,0,0.0,0.0,24,0.00,,,0.00,WUHU216HW,2013-04-26 02:25:00,
2013-04-25 19:29:00,68.8,30.2,29.88,North,0,0.0,0.0,24,0.00,,,0.00,WUHU216HW,2013-04-26 02:29:00,
2013-04-25 19:30:00,68.8,30.2,29.88,North,0,0.0,0.0,24,0.00,,,0.00,WUHU216HW,2013-04-26 02:30:00,
2013-04-25 19:32:00,68.8,30.2,29.89,North,0,0.0,0.0,24,0.00,,,0.00,WUHU216HW,2013-04-26 02:32:00,
2013-04-25 19:34:00,68.8,30.2,29.89,North,0,0.0,0.0,24,0.00,,,0.00,WUHU216HW,2013-04-26 02:34:00,
2013-04-25 19:35:00,68.8,30.2,29.89,North,0,0.0,0.0,24,0.00,,,0.00,WUHU216HW,2013-04-26 02:35:00,
2013-04-25 19:36:00,68.6,30.0,29.89,North,0,0.0,0.0,24,0.00,,,0.00,WUHU216HW,2013-04-26 02:36:00,
2013-04-25 19:39:00,68.4,30.8,29.89,North,0,0.0,0.0,25,0.00,,,0.00,WUHU216HW,2013-04-26 02:39:00,
2013-04-25 19:40:00,68.4,30.8,29.89,North,0,0.0,0.0,25,0.00,,,0.00,WUHU216HW,2013-04-26 02:40:00,
2013-04-25 19:41:00,68.4,30.8,29.89,North,0,0.0,0.0,25,0.00,,,0.00,WUHU216HW,2013-04-26 02:41:00,
2013-04-25 19:44:00,68.0,30.5,29.89,North,0,0.0,0.0,25,0.00,,,0.00,WUHU216HW,2013-04-26 02:44:00,
2013-04-25 19:45:00,68.0,30.5,29.89,North,0,0.0,0.0,25,0.00,,,0.00,WUHU216HW,2013-04-26 02:45:00,
2013-04-25 19:46:00,68.0,30.5,29.89,North,0,0.0,0.0,25,0.00,,,0.00,WUHU216HW,2013-04-26 02:46:00,
2013-04-25 19:47:00,68.0,30.5,29.89,North,0,0.0,0.0,25,0.00,,,0.00,WUHU216HW,2013-04-26 02:47:00,
2013-04-25 19:51:00,67.9,31.3,29.90,North,0,0.0,0.0,26,0.00,,,0.00,WUHU216HW,2013-04-26 02:51:00,
2013-04-25 19:52:00,67.9,31.3,29.90,North,0,0.0,0.0,26,0.00,,,0.00,WUHU216HW,2013-04-26 02:52:00,
2013-04-25 19:53:00,67.9,31.3,29.90,North,0,0.0,0.0,26,0.00,,,0.00,WUHU216HW,2013-04-26 02:53:00,
2013-04-25 19:57:00,67.7,31.2,29.90,North,0,0.0,0.0,26,0.00,,,0.00,WUHU216HW,2013-04-26 02:57:00,
2013-04-25 19:58:00,67.9,31.3,29.90,North,0,0.0,0.0,26,0.00,,,0.00,WUHU216HW,2013-04-26 02:58:00,
2013-04-25 20:00:00,67.7,32.2,29.90,North,0,0.0,0.0,27,0.00,,,0.00,WUHU216HW,2013-04-26 03:00:00,
2013-04-25 20:03:00,67.5,31.1,29.90,North,0,0.0,0.0,26,0.00,,,0.00,WUHU216HW,2013-04-26 03:03:00,
2013-04-25 20:04:00,67.5,31.1,29.91,North,0,0.0,0.0,26,0.00,,,0.00,WUHU216HW,2013-04-26 03:04:00,
2013-04-25 20:05:00,67.5,31.1,29.91,North,0,0.0,0.0,26,0.00,,,0.00,WUHU216HW,2013-04-26 03:05:00,
2013-04-25 20:06:00,67.3,30.9,29.91,North,0,0.0,0.0,26,0.00,,,0.00,WUHU216HW,2013-04-26 03:06:00,
2013-04-25 20:08:00,67.1,30.8,29.91,North,0,0.0,0.0,26,0.00,,,0.00,WUHU216HW,2013-04-26 03:08:00,
2013-04-25 20:09:00,67.1,30.8,29.91,North,0,0.0,0.0,26,0.00,,,0.00,WUHU216HW,2013-04-26 03:09:00,
2013-04-25 20:10:00,67.1,30.8,29.91,North,0,0.0,0.0,26,0.00,,,0.00,WUHU216HW,2013-04-26 03:10:00,
2013-04-25 20:12:00,67.0,30.6,29.91,North,0,0.0,0.0,26,0.00,,,0.00,WUHU216HW,2013-04-26 03:12:00,
2013-04-25 20:14:00,66.8,30.4,29.91,North,0,0.0,0.0,26,0.00,,,0.00,WUHU216HW,2013-04-26 03:14:00,
2013-04-25 20:15:00,66.8,30.4,29.91,North,0,0.0,0.0,26,0.00,,,0.00,WUHU216HW,2013-04-26 03:15:00,
2013-04-25 20:16:00,66.6,30.3,29.91,North,0,0.0,0.0,26,0.00,,,0.00,WUHU216HW,2013-04-26 03:16:00,
2013-04-25 20:17:00,66.6,30.3,29.91,North,0,0.0,0.0,26,0.00,,,0.00,WUHU216HW,2013-04-26 03:17:00,
2013-04-25 20:18:00,66.6,30.3,29.91,North,0,0.0,0.0,26,0.00,,,0.00,WUHU216HW,2013-04-26 03:18:00,
2013-04-25 20:20:00,66.6,31.3,29.91,North,0,0.0,0.0,27,0.00,,,0.00,WUHU216HW,2013-04-26 03:20:00,
2013-04-25 20:21:00,66.4,31.1,29.92,North,0,0.0,0.0,27,0.00,,,0.00,WUHU216HW,2013-04-26 03:21:00,
2013-04-25 20:23:00,66.2,32.1,29.92,North,0,0.0,0.0,28,0.00,,,0.00,WUHU216HW,2013-04-26 03:23:00,
2013-04-25 20:25:00,66.2,32.1,29.92,North,0,0.0,0.0,28,0.00,,,0.00,WUHU216HW,2013-04-26 03:25:00,
2013-04-25 20:26:00,66.1,31.9,29.92,North,0,0.0,0.0,28,0.00,,,0.00,WUHU216HW,2013-04-26 03:26:00,
2013-04-25 20:28:00,66.1,31.9,29.92,North,0,0.0,0.0,28,0.00,,,0.00,WUHU216HW,2013-04-26 03:28:00,
2013-04-25 20:30:00,66.1,31.9,29.92,North,0,0.0,0.0,28,0.00,,,0.00,WUHU216HW,2013-04-26 03:30:00,
2013-04-25 20:32:00,65.9,31.7,29.92,North,0,0.0,0.0,28,0.00,,,0.00,WUHU216HW,2013-04-26 03:32:00,
2013-04-25 20:33:00,65.9,31.7,29.93,North,0,0.0,0.0,28,0.00,,,0.00,WUHU216HW,2013-04-26 03:33:00,
2013-04-25 20:34:00,65.9,31.7,29.93,North,0,0.0,0.0,28,0.00,,,0.00,WUHU216HW,2013-04-26 03:34:00,
2013-04-25 20:36:00,65.9,31.7,29.93,North,0,0.0,0.0,28,0.00,,,0.00,WUHU216HW,2013-04-26 03:36:00,
2013-04-25 20:37:00,65.9,31.7,29.93,North,0,0.0,0.0,28,0.00,,,0.00,WUHU216HW,2013-04-26 03:37:00,
2013-04-25 20:38:00,65.9,31.7,29.93,North,0,0.0,0.0,28,0.00,,,0.00,WUHU216HW,2013-04-26 03:38:00,
2013-04-25 20:39:00,65.9,31.7,29.93,North,0,0.0,0.0,28,0.00,,,0.00,WUHU216HW,2013-04-26 03:39:00,
2013-04-25 20:40:00,65.9,31.7,29.93,North,0,0.0,0.0,28,0.00,,,0.00,WUHU216HW,2013-04-26 03:40:00,
2013-04-25 20:41:00,65.9,31.7,29.93,North,0,0.0,0.0,28,0.00,,,0.00,WUHU216HW,2013-04-26 03:41:00,
2013-04-25 20:44:00,65.9,31.7,29.93,North,0,0.0,0.0,28,0.00,,,0.00,WUHU216HW,2013-04-26 03:44:00,
2013-04-25 20:46:00,65.7,31.5,29.93,North,0,0.0,0.0,28,0.00,,,0.00,WUHU216HW,2013-04-26 03:46:00,
2013-04-25 20:49:00,65.7,31.5,29.94,North,0,0.0,0.0,28,0.00,,,0.00,WUHU216HW,2013-04-26 03:49:00,
2013-04-25 20:51:00,65.7,31.5,29.94,North,0,0.0,0.0,28,0.00,,,0.00,WUHU216HW,2013-04-26 03:51:00,
2013-04-25 20:52:00,65.5,31.4,29.94,North,0,0.0,0.0,28,0.00,,,0.00,WUHU216HW,2013-04-26 03:52:00,
2013-04-25 20:56:00,65.3,31.2,29.94,North,0,0.0,0.0,28,0.00,,,0.00,WUHU216HW,2013-04-26 03:56:00,
2013-04-25 20:57:00,65.3,31.2,29.94,North,0,0.0,0.0,28,0.00,,,0.00,WUHU216HW,2013-04-26 03:57:00,
2013-04-25 20:58:00,65.3,31.2,29.94,North,0,0.0,0.0,28,0.00,,,0.00,WUHU216HW,2013-04-26 03:58:00,
2013-04-25 21:01:00,65.2,31.1,29.94,North,0,0.0,0.0,28,0.00,,,0.00,WUHU216HW,2013-04-26 04:01:00,
2013-04-25 21:02:00,65.2,31.1,29.95,North,0,0.0,0.0,28,0.00,,,0.00,WUHU216HW,2013-04-26 04:02:00,
2013-04-25 21:06:00,65.2,31.1,29.95,North,0,0.0,0.0,28,0.00,,,0.00,WUHU216HW,2013-04-26 04:06:00,
2013-04-25 21:07:00,65.3,31.2,29.95,North,0,0.0,0.0,28,0.00,,,0.00,WUHU216HW,2013-04-26 04:07:00,
2013-04-25 21:12:00,65.3,30.3,29.95,North,0,0.0,0.0,27,0.00,,,0.00,WUHU216HW,2013-04-26 04:12:00,
2013-04-25 21:13:00,65.3,30.3,29.95,North,0,0.0,0.0,27,0.00,,,0.00,WUHU216HW,2013-04-26 04:13:00,
2013-04-25 21:14:00,65.3,31.2,29.95,North,0,0.0,0.0,28,0.00,,,0.00,WUHU216HW,2013-04-26 04:14:00,
2013-04-25 21:17:00,65.2,30.1,29.96,North,0,0.0,0.0,27,0.00,,,0.00,WUHU216HW,2013-04-26 04:17:00,
2013-04-25 21:18:00,65.2,31.1,29.95,North,0,0.0,0.0,28,0.00,,,0.00,WUHU216HW,2013-04-26 04:18:00,
2013-04-25 21:19:00,65.2,31.1,29.96,North,0,0.0,0.0,28,0.00,,,0.00,WUHU216HW,2013-04-26 04:19:00,
2013-04-25 21:21:00,65.0,30.9,29.96,North,0,0.0,0.0,28,0.00,,,0.00,WUHU216HW,2013-04-26 04:21:00,
2013-04-25 21:24:00,64.8,30.8,29.96,North,0,0.0,0.0,28,0.00,,,0.00,WUHU216HW,2013-04-26 04:24:00,
2013-04-25 21:25:00,64.8,30.8,29.96,North,0,0.0,0.0,28,0.00,,,0.00,WUHU216HW,2013-04-26 04:25:00,
2013-04-25 21:28:00,64.6,30.6,29.96,North,0,0.0,0.0,28,0.00,,,0.00,WUHU216HW,2013-04-26 04:28:00,
2013-04-25 21:29:00,64.6,30.6,29.96,North,0,0.0,0.0,28,0.00,,,0.00,WUHU216HW,2013-04-26 04:29:00,
2013-04-25 21:31:00,64.6,30.6,29.96,North,0,0.0,0.0,28,0.00,,,0.00,WUHU216HW,2013-04-26 04:31:00,
2013-04-25 21:34:00,64.6,30.6,29.96,North,0,0.0,0.0,28,0.00,,,0.00,WUHU216HW,2013-04-26 04:34:00,
2013-04-25 21:35:00,64.6,30.6,29.96,North,0,0.0,0.0,28,0.00,,,0.00,WUHU216HW,2013-04-26 04:35:00,
2013-04-25 21:36:00,64.4,31.4,29.96,North,0,0.0,0.0,29,0.00,,,0.00,WUHU216HW,2013-04-26 04:36:00,
2013-04-25 21:40:00,64.4,30.4,29.96,North,0,0.0,0.0,28,0.00,,,0.00,WUHU216HW,2013-04-26 04:40:00,
2013-04-25 21:41:00,64.4,30.4,29.96,North,0,0.0,0.0,28,0.00,,,0.00,WUHU216HW,2013-04-26 04:41:00,
2013-04-25 21:45:00,64.4,31.4,29.96,North,0,0.0,0.0,29,0.00,,,0.00,WUHU216HW,2013-04-26 04:45:00,
2013-04-25 21:46:00,64.4,30.4,29.96,North,0,0.0,0.0,28,0.00,,,0.00,WUHU216HW,2013-04-26 04:46:00,
2013-04-25 21:47:00,64.4,30.4,29.96,North,0,0.0,0.0,28,0.00,,,0.00,WUHU216HW,2013-04-26 04:47:00,
2013-04-25 21:51:00,63.9,29.0,29.97,North,0,0.0,0.0,27,0.00,,,0.00,WUHU216HW,2013-04-26 04:51:00,
2013-04-25 21:52:00,63.9,29.0,29.97,North,0,0.0,0.0,27,0.00,,,0.00,WUHU216HW,2013-04-26 04:52:00,
2013-04-25 21:53:00,63.7,29.8,29.96,North,0,0.0,0.0,28,0.00,,,0.00,WUHU216HW,2013-04-26 04:53:00,
2013-04-25 21:57:00,63.2,29.4,29.97,North,0,0.0,0.0,28,0.00,,,0.00,WUHU216HW,2013-04-26 04:57:00,
2013-04-25 21:58:00,63.0,29.2,29.97,North,0,0.0,0.0,28,0.00,,,0.00,WUHU216HW,2013-04-26 04:58:00,
2013-04-25 21:59:00,63.0,29.2,29.97,North,0,0.0,0.0,28,0.00,,,0.00,WUHU216HW,2013-04-26 04:59:00,
2013-04-25 22:02:00,63.0,29.2,29.97,North,0,0.0,0.0,28,0.00,,,0.00,WUHU216HW,2013-04-26 05:02:00,
2013-04-25 22:03:00,63.0,29.2,29.97,North,0,0.0,0.0,28,0.00,,,0.00,WUHU216HW,2013-04-26 05:03:00,
2013-04-25 22:05:00,62.8,30.0,29.96,North,0,0.0,0.0,29,0.00,,,0.00,WUHU216HW,2013-04-26 05:05:00,
2013-04-25 22:07:00,62.6,29.8,29.97,North,0,0.0,0.0,29,0.00,,,0.00,WUHU216HW,2013-04-26 05:07:00,
2013-04-25 22:08:00,62.5,29.6,29.97,North,0,0.0,0.0,29,0.00,,,0.00,WUHU216HW,2013-04-26 05:08:00,
2013-04-25 22:09:00,62.5,29.6,29.97,North,0,0.0,0.0,29,0.00,,,0.00,WUHU216HW,2013-04-26 05:09:00,
2013-04-25 22:10:00,62.5,29.6,29.97,North,0,0.0,0.0,29,0.00,,,0.00,WUHU216HW,2013-04-26 05:10:00,
2013-04-25 22:11:00,62.3,29.5,29.97,North,0,0.0,0.0,29,0.00,,,0.00,WUHU216HW,2013-04-26 05:11:00,
2013-04-25 22:14:00,62.3,29.5,29.97,North,0,0.0,0.0,29,0.00,,,0.00,WUHU216HW,2013-04-26 05:14:00,
2013-04-25 22:15:00,62.3,29.5,29.97,North,0,0.0,0.0,29,0.00,,,0.00,WUHU216HW,2013-04-26 05:15:00,
2013-04-25 22:16:00,62.1,29.4,29.97,North,0,0.0,0.0,29,0.00,,,0.00,WUHU216HW,2013-04-26 05:16:00,
2013-04-25 22:17:00,62.1,29.4,29.97,North,0,0.0,0.0,29,0.00,,,0.00,WUHU216HW,2013-04-26 05:17:00,
2013-04-25 22:20:00,61.9,29.2,29.97,North,0,0.0,0.0,29,0.00,,,0.00,WUHU216HW,2013-04-26 05:20:00,
2013-04-25 22:21:00,61.7,29.0,29.97,North,0,0.0,0.0,29,0.00,,,0.00,WUHU216HW,2013-04-26 05:21:00,
2013-04-25 22:22:00,61.7,29.0,29.97,North,0,0.0,0.0,29,0.00,,,0.00,WUHU216HW,2013-04-26 05:22:00,
2013-04-25 22:23:00,61.7,29.0,29.98,North,0,0.0,0.0,29,0.00,,,0.00,WUHU216HW,2013-04-26 05:23:00,
2013-04-25 22:25:00,61.7,30.0,29.98,North,0,0.0,0.0,30,0.00,,,0.00,WUHU216HW,2013-04-26 05:25:00,
2013-04-25 22:26:00,61.7,30.0,29.98,North,0,0.0,0.0,30,0.00,,,0.00,WUHU216HW,2013-04-26 05:26:00,
2013-04-25 22:27:00,61.6,29.8,29.98,North,0,0.0,0.0,30,0.00,,,0.00,WUHU216HW,2013-04-26 05:27:00,
2013-04-25 22:28:00,61.6,28.9,29.98,North,0,0.0,0.0,29,0.00,,,0.00,WUHU216HW,2013-04-26 05:28:00,
2013-04-25 22:32:00,61.6,29.8,29.98,North,0,0.0,0.0,30,0.00,,,0.00,WUHU216HW,2013-04-26 05:32:00,
2013-04-25 22:33:00,61.4,29.6,29.98,North,0,0.0,0.0,30,0.00,,,0.00,WUHU216HW,2013-04-26 05:33:00,
2013-04-25 22:34:00,61.4,29.6,29.98,North,0,0.0,0.0,30,0.00,,,0.00,WUHU216HW,2013-04-26 05:34:00,
2013-04-25 22:37:00,61.4,29.6,29.98,North,0,0.0,0.0,30,0.00,,,0.00,WUHU216HW,2013-04-26 05:37:00,
2013-04-25 22:38:00,61.4,30.3,29.98,North,0,0.0,0.0,31,0.00,,,0.00,WUHU216HW,2013-04-26 05:38:00,
2013-04-25 22:39:00,61.4,30.3,29.98,North,0,0.0,0.0,31,0.00,,,0.00,WUHU216HW,2013-04-26 05:39:00,
2013-04-25 22:40:00,61.2,30.3,29.98,North,0,0.0,0.0,31,0.00,,,0.00,WUHU216HW,2013-04-26 05:40:00,
2013-04-25 22:43:00,61.0,30.1,29.98,North,0,0.0,0.0,31,0.00,,,0.00,WUHU216HW,2013-04-26 05:43:00,
2013-04-25 22:44:00,60.8,29.9,29.98,North,0,0.0,0.0,31,0.00,,,0.00,WUHU216HW,2013-04-26 05:44:00,
2013-04-25 22:45:00,60.8,29.9,29.98,North,0,0.0,0.0,31,0.00,,,0.00,WUHU216HW,2013-04-26 05:45:00,
2013-04-25 22:46:00,60.8,29.9,29.98,North,0,0.0,0.0,31,0.00,,,0.00,WUHU216HW,2013-04-26 05:46:00,
2013-04-25 22:49:00,60.8,29.2,29.98,North,0,0.0,0.0,30,0.00,,,0.00,WUHU216HW,2013-04-26 05:49:00,
2013-04-25 22:50:00,60.7,29.7,29.98,North,0,0.0,0.0,31,0.00,,,0.00,WUHU216HW,2013-04-26 05:50:00,
2013-04-25 22:51:00,60.7,30.4,29.98,North,0,0.0,0.0,32,0.00,,,0.00,WUHU216HW,2013-04-26 05:51:00,
2013-04-25 22:52:00,60.5,29.6,29.98,North,0,0.0,0.0,31,0.00,,,0.00,WUHU216HW,2013-04-26 05:52:00,
2013-04-25 22:55:00,60.1,30.0,29.98,North,0,0.0,0.0,32,0.00,,,0.00,WUHU216HW,2013-04-26 05:55:00,
2013-04-25 22:56:00,60.1,30.0,29.98,North,0,0.0,0.0,32,0.00,,,0.00,WUHU216HW,2013-04-26 05:56:00,
2013-04-25 22:58:00,59.9,29.9,29.98,North,0,0.0,0.0,32,0.00,,,0.00,WUHU216HW,2013-04-26 05:58:00,
2013-04-25 23:00:00,59.8,29.7,29.98,North,0,0.0,0.0,32,0.00,,,0.00,WUHU216HW,2013-04-26 06:00:00,
2013-04-25 23:01:00,59.8,29.7,29.98,North,0,0.0,0.0,32,0.00,,,0.00,WUHU216HW,2013-04-26 06:01:00,
2013-04-25 23:02:00,59.8,29.7,29.98,North,0,0.0,0.0,32,0.00,,,0.00,WUHU216HW,2013-04-26 06:02:00,
2013-04-25 23:04:00,59.8,29.7,29.98,North,0,0.0,0.0,32,0.00,,,0.00,WUHU216HW,2013-04-26 06:04:00,
2013-04-25 23:06:00,59.9,29.9,29.98,North,0,0.0,0.0,32,0.00,,,0.00,WUHU216HW,2013-04-26 06:06:00,
2013-04-25 23:07:00,59.9,29.9,29.98,North,0,0.0,0.0,32,0.00,,,0.00,WUHU216HW,2013-04-26 06:07:00,
2013-04-25 23:09:00,59.9,29.9,29.98,North,0,0.0,0.0,32,0.00,,,0.00,WUHU216HW,2013-04-26 06:09:00,
2013-04-25 23:12:00,59.9,29.9,29.98,North,0,0.0,0.0,32,0.00,,,0.00,WUHU216HW,2013-04-26 06:12:00,
2013-04-25 23:14:00,59.9,29.9,29.99,North,0,0.0,0.0,32,0.00,,,0.00,WUHU216HW,2013-04-26 06:14:00,
2013-04-25 23:16:00,59.9,29.9,29.99,North,0,0.0,0.0,32,0.00,,,0.00,WUHU216HW,2013-04-26 06:16:00,
2013-04-25 23:17:00,59.8,29.7,29.99,North,0,0.0,0.0,32,0.00,,,0.00,WUHU216HW,2013-04-26 06:17:00,
2013-04-25 23:18:00,59.8,29.7,29.99,North,0,0.0,0.0,32,0.00,,,0.00,WUHU216HW,2013-04-26 06:18:00,
2013-04-25 23:19:00,59.8,29.7,29.99,North,0,0.0,0.0,32,0.00,,,0.00,WUHU216HW,2013-04-26 06:19:00,
2013-04-25 23:21:00,59.6,29.6,29.99,North,0,0.0,0.0,32,0.00,,,0.00,WUHU216HW,2013-04-26 06:21:00,
2013-04-25 23:22:00,59.6,29.6,29.99,North,0,0.0,0.0,32,0.00,,,0.00,WUHU216HW,2013-04-26 06:22:00,
2013-04-25 23:24:00,59.4,29.4,29.99,North,0,0.0,0.0,32,0.00,,,0.00,WUHU216HW,2013-04-26 06:24:00,
2013-04-25 23:25:00,59.4,29.4,29.99,North,0,0.0,0.0,32,0.00,,,0.00,WUHU216HW,2013-04-26 06:25:00,
2013-04-25 23:28:00,59.4,29.4,29.99,North,0,0.0,0.0,32,0.00,,,0.00,WUHU216HW,2013-04-26 06:28:00,
2013-04-25 23:29:00,59.4,30.2,29.99,North,0,0.0,0.0,33,0.00,,,0.00,WUHU216HW,2013-04-26 06:29:00,
2013-04-25 23:32:00,59.2,30.0,29.99,North,0,0.0,0.0,33,0.00,,,0.00,WUHU216HW,2013-04-26 06:32:00,
2013-04-25 23:33:00,59.0,29.8,29.99,North,0,0.0,0.0,33,0.00,,,0.00,WUHU216HW,2013-04-26 06:33:00,
2013-04-25 23:34:00,59.0,29.8,29.99,North,0,0.0,0.0,33,0.00,,,0.00,WUHU216HW,2013-04-26 06:34:00,
2013-04-25 23:37:00,59.0,29.8,29.99,North,0,0.0,0.0,33,0.00,,,0.00,WUHU216HW,2013-04-26 06:37:00,
2013-04-25 23:39:00,58.9,29.7,29.99,North,0,0.0,0.0,33,0.00,,,0.00,WUHU216HW,2013-04-26 06:39:00,
2013-04-25 23:40:00,59.0,29.8,29.99,North,0,0.0,0.0,33,0.00,,,0.00,WUHU216HW,2013-04-26 06:40:00,
2013-04-25 23:45:00,58.9,29.7,29.99,North,0,0.0,0.0,33,0.00,,,0.00,WUHU216HW,2013-04-26 06:45:00,
2013-04-25 23:46:00,58.7,29.5,29.99,North,0,0.0,0.0,33,0.00,,,0.00,WUHU216HW,2013-04-26 06:46:00,
2013-04-25 23:47:00,58.7,30.9,29.99,North,0,0.0,0.0,35,0.00,,,0.00,WUHU216HW,2013-04-26 06:47:00,
2013-04-25 23:50:00,58.5,30.1,29.99,North,0,0.0,0.0,34,0.00,,,0.00,WUHU216HW,2013-04-26 06:50:00,
2013-04-25 23:51:00,58.5,30.1,29.99,North,0,0.0,0.0,34,0.00,,,0.00,WUHU216HW,2013-04-26 06:51:00,
2013-04-25 23:52:00,58.3,30.6,29.99,North,0,0.0,0.0,35,0.00,,,0.00,WUHU216HW,2013-04-26 06:52:00,
2013-04-25 23:53:00,58.3,31.3,30.00,North,0,0.0,0.0,36,0.00,,,0.00,WUHU216HW,2013-04-26 06:53:00,
2013-04-25 23:56:00,58.1,29.7,30.00,North,0,0.0,0.0,34,0.00,,,0.00,WUHU216HW,2013-04-26 06:56:00,
2013-04-25 23:57:00,58.1,29.7,30.00,North,0,0.0,0.0,34,0.00,,,0.00,WUHU216HW,2013-04-26 06:57:00,
2013-04-25 23:59:00,58.1,29.7,30.00,North,0,0.0,0.0,34,0.00,,,0.00,WUHU216HW,2013-04-26 06:59:00,